Wetterdaten: Sonntag, 20.10.2013
Datum Zeit Temp. Aussen +5cm Feuchte Auss Luftdruck Regen Sonnenschein Regendauer UV Solar Windben
20.10.2013 00:00 16,6 C 13,9 C 89 % 1010,2 hPa 0,0 l/m 0 min 0 min 0,0 UV-I 0 W/m 0,0 km/h (0 Bft)
20.10.2013 00:02 16,6 C 13,9 C 89 % 1010,3 hPa 0,0 l/m 0 min 0 min 0,0 UV-I 0 W/m 0,0 km/h (0 Bft)
20.10.2013 00:06 16,4 C 13,9 C 89 % 1010,3 hPa 0,0 l/m 0 min 0 min 0,0 UV-I 0 W/m 0,0 km/h (0 Bft)
20.10.2013 00:08 16,4 C 13,9 C 89 % 1010,3 hPa 0,0 l/m 0 min 0 min 0,0 UV-I 0 W/m 0,0 km/h (0 Bft)
20.10.2013 00:10 16,4 C 13,9 C 90 % 1010,3 hPa 0,0 l/m 0 min 0 min 0,0 UV-I 0 W/m 0,0 km/h (0 Bft)
20.10.2013 00:12 16,3 C 13,9 C 90 % 1010,4 hPa 0,0 l/m 0 min 0 min 0,0 UV-I 0 W/m 0,0 km/h (0 Bft)
20.10.2013 00:14 16,3 C 13,3 C 90 % 1010,4 hPa 0,0 l/m 0 min 0 min 0,0 UV-I 0 W/m 0,0 km/h (0 Bft)
20.10.2013 00:16 16,2 C 13,3 C 90 % 1010,4 hPa 0,0 l/m 0 min 0 min 0,0 UV-I 0 W/m 0,0 km/h (0 Bft)
20.10.2013 00:18 16,2 C 13,3 C 90 % 1010,4 hPa 0,0 l/m 0 min 0 min 0,0 UV-I 0 W/m 0,0 km/h (0 Bft)
20.10.2013 00:20 16,1 C 13,3 C 90 % 1010,4 hPa 0,0 l/m 0 min 0 min 0,0 UV-I 0 W/m 0,0 km/h (0 Bft)
20.10.2013 00:22 16,1 C 13,3 C 91 % 1010,4 hPa 0,0 l/m 0 min 0 min 0,0 UV-I 0 W/m 2,6 km/h (1 Bft)
20.10.2013 00:24 16,0 C 13,3 C 91 % 1010,4 hPa 0,0 l/m 0 min 0 min 0,0 UV-I 0 W/m 0,0 km/h (0 Bft)
20.10.2013 00:26 15,9 C 13,3 C 91 % 1010,4 hPa 0,0 l/m 0 min 0 min 0,0 UV-I 0 W/m 0,0 km/h (0 Bft)
20.10.2013 00:28 15,9 C 13,3 C 91 % 1010,4 hPa 0,0 l/m 0 min 0 min 0,0 UV-I 0 W/m 2,6 km/h (1 Bft)
20.10.2013 00:30 15,9 C 13,3 C 91 % 1010,4 hPa 0,0 l/m 0 min 0 min 0,0 UV-I 0 W/m 2,6 km/h (1 Bft)
20.10.2013 00:32 15,9 C 13,3 C 91 % 1010,4 hPa 0,0 l/m 0 min 0 min 0,0 UV-I 0 W/m 0,0 km/h (0 Bft)
20.10.2013 00:34 15,9 C 13,3 C 91 % 1010,4 hPa 0,0 l/m 0 min 0 min 0,0 UV-I 0 W/m 0,0 km/h (0 Bft)
20.10.2013 00:36 15,8 C 13,3 C 91 % 1010,4 hPa 0,0 l/m 0 min 0 min 0,0 UV-I 0 W/m 0,0 km/h (0 Bft)
20.10.2013 00:38 15,8 C 13,3 C 92 % 1010,4 hPa 0,0 l/m 0 min 0 min 0,0 UV-I 0 W/m 0,0 km/h (0 Bft)
20.10.2013 00:40 15,8 C 13,3 C 92 % 1010,5 hPa 0,0 l/m 0 min 0 min 0,0 UV-I 0 W/m 0,0 km/h (0 Bft)
20.10.2013 00:42 15,7 C 12,8 C 92 % 1010,5 hPa 0,0 l/m 0 min 0 min 0,0 UV-I 0 W/m 0,0 km/h (0 Bft)
20.10.2013 00:44 15,6 C 12,8 C 92 % 1010,6 hPa 0,0 l/m 0 min 0 min 0,0 UV-I 0 W/m 0,0 km/h (0 Bft)
20.10.2013 00:46 15,6 C 12,8 C 92 % 1010,6 hPa 0,0 l/m 0 min 0 min 0,0 UV-I 0 W/m 0,0 km/h (0 Bft)
20.10.2013 00:48 15,6 C 12,8 C 92 % 1010,6 hPa 0,0 l/m 0 min 0 min 0,0 UV-I 0 W/m 0,0 km/h (0 Bft)
20.10.2013 00:50 15,6 C 12,8 C 92 % 1010,6 hPa 0,0 l/m 0 min 0 min 0,0 UV-I 0 W/m 0,0 km/h (0 Bft)
20.10.2013 00:52 15,4 C 12,8 C 92 % 1010,7 hPa 0,0 l/m 0 min 0 min 0,0 UV-I 0 W/m 0,0 km/h (0 Bft)
20.10.2013 00:54 15,4 C 12,8 C 92 % 1010,7 hPa 0,0 l/m 0 min 0 min 0,0 UV-I 0 W/m 0,0 km/h (0 Bft)
20.10.2013 00:56 15,3 C 12,2 C 93 % 1010,7 hPa 0,0 l/m 0 min 0 min 0,0 UV-I 0 W/m 0,0 km/h (0 Bft)
20.10.2013 00:58 15,1 C 12,2 C 92 % 1010,6 hPa 0,0 l/m 0 min 0 min 0,0 UV-I 0 W/m 0,0 km/h (0 Bft)
20.10.2013 01:00 14,9 C 12,2 C 92 % 1010,6 hPa 0,0 l/m 0 min 0 min 0,0 UV-I 0 W/m 0,0 km/h (0 Bft)
20.10.2013 01:02 14,8 C 12,2 C 93 % 1010,7 hPa 0,0 l/m 0 min 0 min 0,0 UV-I 0 W/m 0,0 km/h (0 Bft)
20.10.2013 01:06 14,7 C 12,2 C 93 % 1010,7 hPa 0,0 l/m 0 min 0 min 0,0 UV-I 0 W/m 0,0 km/h (0 Bft)
20.10.2013 01:08 14,6 C 12,2 C 93 % 1010,7 hPa 0,0 l/m 0 min 0 min 0,0 UV-I 0 W/m 0,0 km/h (0 Bft)
20.10.2013 01:10 14,4 C 12,2 C 93 % 1010,8 hPa 0,0 l/m 0 min 0 min 0,0 UV-I 0 W/m 0,0 km/h (0 Bft)
20.10.2013 01:12 14,4 C 11,7 C 94 % 1010,8 hPa 0,0 l/m 0 min 0 min 0,0 UV-I 0 W/m 0,0 km/h (0 Bft)
20.10.2013 01:14 14,2 C 11,7 C 94 % 1010,8 hPa 0,0 l/m 0 min 0 min 0,0 UV-I 0 W/m 0,0 km/h (0 Bft)
20.10.2013 01:16 14,2 C 11,7 C 94 % 1010,9 hPa 0,0 l/m 0 min 0 min 0,0 UV-I 0 W/m 0,0 km/h (0 Bft)
20.10.2013 01:18 14,2 C 11,7 C 94 % 1010,9 hPa 0,0 l/m 0 min 0 min 0,0 UV-I 0 W/m 0,0 km/h (0 Bft)
20.10.2013 01:20 14,2 C 11,7 C 95 % 1011,1 hPa 0,0 l/m 0 min 0 min 0,0 UV-I 0 W/m 0,0 km/h (0 Bft)
20.10.2013 01:22 14,2 C 12,2 C 95 % 1011,0 hPa 0,0 l/m 0 min 0 min 0,0 UV-I 0 W/m 0,0 km/h (0 Bft)
20.10.2013 01:24 14,2 C 11,7 C 95 % 1011,0 hPa 0,0 l/m 0 min 0 min 0,0 UV-I 0 W/m 0,0 km/h (0 Bft)
20.10.2013 01:26 14,2 C 11,7 C 95 % 1010,9 hPa 0,0 l/m 0 min 0 min 0,0 UV-I 0 W/m 0,0 km/h (0 Bft)
20.10.2013 01:28 14,1 C 11,7 C 95 % 1010,9 hPa 0,0 l/m 0 min 0 min 0,0 UV-I 0 W/m 0,0 km/h (0 Bft)
20.10.2013 01:30 14,2 C 12,2 C 95 % 1011,0 hPa 0,0 l/m 0 min 0 min 0,0 UV-I 0 W/m 5,1 km/h (1 Bft)
20.10.2013 01:32 14,2 C 12,2 C 95 % 1011,1 hPa 0,0 l/m 0 min 0 min 0,0 UV-I 0 W/m 0,0 km/h (0 Bft)
20.10.2013 01:34 14,2 C 11,7 C 96 % 1011,0 hPa 0,0 l/m 0 min 0 min 0,0 UV-I 0 W/m 0,0 km/h (0 Bft)
20.10.2013 01:36 14,2 C 12,2 C 96 % 1011,1 hPa 0,0 l/m 0 min 0 min 0,0 UV-I 0 W/m 0,0 km/h (0 Bft)
20.10.2013 01:38 14,2 C 12,2 C 96 % 1011,1 hPa 0,0 l/m 0 min 0 min 0,0 UV-I 0 W/m 0,0 km/h (0 Bft)
20.10.2013 01:40 14,2 C 12,2 C 96 % 1011,1 hPa 0,0 l/m 0 min 0 min 0,0 UV-I 0 W/m 0,0 km/h (0 Bft)
20.10.2013 01:42 14,2 C 12,2 C 96 % 1011,2 hPa 0,0 l/m 0 min 0 min 0,0 UV-I 0 W/m 5,1 km/h (1 Bft)
20.10.2013 01:44 14,3 C 12,2 C 96 % 1011,2 hPa 0,0 l/m 0 min 0 min 0,0 UV-I 0 W/m 0,0 km/h (0 Bft)
20.10.2013 01:46 14,4 C 12,2 C 96 % 1011,2 hPa 0,0 l/m 0 min 0 min 0,0 UV-I 0 W/m 0,0 km/h (0 Bft)
20.10.2013 01:48 14,4 C 12,2 C 96 % 1011,1 hPa 0,0 l/m 0 min 0 min 0,0 UV-I 0 W/m 0,0 km/h (0 Bft)
20.10.2013 01:50 14,4 C 12,2 C 96 % 1011,1 hPa 0,0 l/m 0 min 0 min 0,0 UV-I 0 W/m 0,0 km/h (0 Bft)
20.10.2013 01:52 14,5 C 12,2 C 96 % 1011,1 hPa 0,0 l/m 0 min 0 min 0,0 UV-I 0 W/m 2,6 km/h (1 Bft)
20.10.2013 01:54 14,6 C 12,2 C 96 % 1011,1 hPa 0,0 l/m 0 min 0 min 0,0 UV-I 0 W/m 0,0 km/h (0 Bft)
20.10.2013 01:56 14,6 C 12,2 C 96 % 1011,1 hPa 0,0 l/m 0 min 0 min 0,0 UV-I 0 W/m 0,0 km/h (0 Bft)
20.10.2013 01:58 14,7 C 12,2 C 96 % 1011,1 hPa 0,0 l/m 0 min 0 min 0,0 UV-I 0 W/m 0,0 km/h (0 Bft)
20.10.2013 02:00 14,8 C 12,2 C 96 % 1011,2 hPa 0,0 l/m 0 min 0 min 0,0 UV-I 0 W/m 5,1 km/h (1 Bft)
20.10.2013 02:02 14,8 C 12,8 C 96 % 1011,2 hPa 0,0 l/m 0 min 0 min 0,0 UV-I 0 W/m 5,1 km/h (1 Bft)
20.10.2013 02:06 14,9 C 12,8 C 96 % 1011,1 hPa 0,0 l/m 0 min 0 min 0,0 UV-I 0 W/m 0,0 km/h (0 Bft)
20.10.2013 02:08 14,9 C 12,8 C 96 % 1011,1 hPa 0,0 l/m 0 min 0 min 0,0 UV-I 0 W/m 0,0 km/h (0 Bft)
20.10.2013 02:10 15,0 C 12,8 C 96 % 1011,1 hPa 0,0 l/m 0 min 0 min 0,0 UV-I 0 W/m 0,0 km/h (0 Bft)
20.10.2013 02:12 15,0 C 12,8 C 96 % 1011,1 hPa 0,0 l/m 0 min 0 min 0,0 UV-I 0 W/m 0,0 km/h (0 Bft)
20.10.2013 02:14 15,0 C 12,8 C 96 % 1011,1 hPa 0,0 l/m 0 min 0 min 0,0 UV-I 0 W/m 0,0 km/h (0 Bft)
20.10.2013 02:16 15,0 C 12,8 C 96 % 1011,1 hPa 0,0 l/m 0 min 0 min 0,0 UV-I 0 W/m 0,0 km/h (0 Bft)
20.10.2013 02:18 14,9 C 12,8 C 95 % 1011,0 hPa 0,0 l/m 0 min 0 min 0,0 UV-I 0 W/m 0,0 km/h (0 Bft)
20.10.2013 02:20 14,9 C 12,2 C 95 % 1011,0 hPa 0,0 l/m 0 min 0 min 0,0 UV-I 0 W/m 0,0 km/h (0 Bft)
20.10.2013 02:22 14,9 C 12,2 C 95 % 1011,1 hPa 0,0 l/m 0 min 0 min 0,0 UV-I 0 W/m 0,0 km/h (0 Bft)
20.10.2013 02:24 14,9 C 12,2 C 95 % 1011,0 hPa 0,0 l/m 0 min 0 min 0,0 UV-I 0 W/m 0,0 km/h (0 Bft)
20.10.2013 02:26 14,9 C 12,2 C 95 % 1011,1 hPa 0,0 l/m 0 min 0 min 0,0 UV-I 0 W/m 0,0 km/h (0 Bft)
20.10.2013 02:28 14,9 C 12,2 C 95 % 1011,1 hPa 0,0 l/m 0 min 0 min 0,0 UV-I 0 W/m 0,0 km/h (0 Bft)
20.10.2013 02:30 14,8 C 12,2 C 95 % 1011,1 hPa 0,0 l/m 0 min 0 min 0,0 UV-I 0 W/m 0,0 km/h (0 Bft)
20.10.2013 02:32 14,7 C 12,2 C 95 % 1011,0 hPa 0,0 l/m 0 min 0 min 0,0 UV-I 0 W/m 0,0 km/h (0 Bft)
20.10.2013 02:34 14,6 C 12,2 C 95 % 1011,0 hPa 0,0 l/m 0 min 0 min 0,0 UV-I 0 W/m 0,0 km/h (0 Bft)
20.10.2013 02:36 14,6 C 12,2 C 95 % 1011,0 hPa 0,0 l/m 0 min 0 min 0,0 UV-I 0 W/m 0,0 km/h (0 Bft)
20.10.2013 02:38 14,5 C 12,2 C 95 % 1011,1 hPa 0,0 l/m 0 min 0 min 0,0 UV-I 0 W/m 0,0 km/h (0 Bft)
20.10.2013 02:40 14,5 C 12,2 C 95 % 1011,1 hPa 0,0 l/m 0 min 0 min 0,0 UV-I 0 W/m 0,0 km/h (0 Bft)
20.10.2013 02:42 14,6 C 12,2 C 95 % 1011,0 hPa 0,0 l/m 0 min 0 min 0,0 UV-I 0 W/m 0,0 km/h (0 Bft)
20.10.2013 02:44 14,4 C 12,2 C 95 % 1011,0 hPa 0,0 l/m 0 min 0 min 0,0 UV-I 0 W/m 0,0 km/h (0 Bft)
20.10.2013 02:46 14,5 C 12,2 C 95 % 1011,0 hPa 0,0 l/m 0 min 0 min 0,0 UV-I 0 W/m 2,6 km/h (1 Bft)
20.10.2013 02:48 14,6 C 12,2 C 96 % 1011,0 hPa 0,0 l/m 0 min 0 min 0,0 UV-I 0 W/m 0,0 km/h (0 Bft)
20.10.2013 02:50 14,7 C 12,2 C 96 % 1011,0 hPa 0,0 l/m 0 min 0 min 0,0 UV-I 0 W/m 0,0 km/h (0 Bft)
20.10.2013 02:52 14,7 C 12,2 C 96 % 1011,1 hPa 0,0 l/m 0 min 0 min 0,0 UV-I 0 W/m 0,0 km/h (0 Bft)
20.10.2013 02:54 14,7 C 12,2 C 96 % 1011,1 hPa 0,0 l/m 0 min 0 min 0,0 UV-I 0 W/m 0,0 km/h (0 Bft)
20.10.2013 02:56 14,7 C 12,2 C 96 % 1011,1 hPa 0,0 l/m 0 min 0 min 0,0 UV-I 0 W/m 0,0 km/h (0 Bft)
20.10.2013 02:58 14,7 C 12,2 C 96 % 1011,1 hPa 0,0 l/m 0 min 0 min 0,0 UV-I 0 W/m 0,0 km/h (0 Bft)
20.10.2013 03:00 14,7 C 12,2 C 96 % 1011,1 hPa 0,0 l/m 0 min 0 min 0,0 UV-I 0 W/m 0,0 km/h (0 Bft)
20.10.2013 03:02 14,7 C 12,2 C 96 % 1011,1 hPa 0,0 l/m 0 min 0 min 0,0 UV-I 0 W/m 0,0 km/h (0 Bft)
20.10.2013 03:06 14,7 C 12,2 C 96 % 1011,1 hPa 0,0 l/m 0 min 0 min 0,0 UV-I 0 W/m 0,0 km/h (0 Bft)
20.10.2013 03:08 14,7 C 12,2 C 96 % 1011,1 hPa 0,0 l/m 0 min 0 min 0,0 UV-I 0 W/m 0,0 km/h (0 Bft)
20.10.2013 03:10 14,7 C 12,2 C 96 % 1011,2 hPa 0,0 l/m 0 min 0 min 0,0 UV-I 0 W/m 0,0 km/h (0 Bft)
20.10.2013 03:12 14,7 C 12,2 C 96 % 1011,2 hPa 0,0 l/m 0 min 0 min 0,0 UV-I 0 W/m 0,0 km/h (0 Bft)
20.10.2013 03:14 14,7 C 12,2 C 96 % 1011,1 hPa 0,0 l/m 0 min 0 min 0,0 UV-I 0 W/m 0,0 km/h (0 Bft)
20.10.2013 03:16 14,7 C 12,2 C 96 % 1011,1 hPa 0,0 l/m 0 min 0 min 0,0 UV-I 0 W/m 0,0 km/h (0 Bft)
20.10.2013 03:18 14,8 C 12,8 C 96 % 1011,1 hPa 0,0 l/m 0 min 0 min 0,0 UV-I 0 W/m 0,0 km/h (0 Bft)
20.10.2013 03:20 14,8 C 12,8 C 96 % 1011,2 hPa 0,0 l/m 0 min 0 min 0,0 UV-I 0 W/m 0,0 km/h (0 Bft)
20.10.2013 03:22 14,8 C 12,8 C 96 % 1011,2 hPa 0,0 l/m 0 min 0 min 0,0 UV-I 0 W/m 0,0 km/h (0 Bft)
20.10.2013 03:24 14,8 C 12,8 C 96 % 1011,2 hPa 0,0 l/m 0 min 0 min 0,0 UV-I 0 W/m 0,0 km/h (0 Bft)
20.10.2013 03:26 14,9 C 12,8 C 96 % 1011,2 hPa 0,0 l/m 0 min 0 min 0,0 UV-I 0 W/m 0,0 km/h (0 Bft)
20.10.2013 03:28 14,8 C 12,8 C 96 % 1011,2 hPa 0,0 l/m 0 min 0 min 0,0 UV-I 0 W/m 0,0 km/h (0 Bft)
20.10.2013 03:30 14,9 C 12,8 C 96 % 1011,2 hPa 0,0 l/m 0 min 0 min 0,0 UV-I 0 W/m 7,7 km/h (2 Bft)
20.10.2013 03:32 14,9 C 12,8 C 96 % 1011,2 hPa 0,0 l/m 0 min 0 min 0,0 UV-I 0 W/m 2,6 km/h (1 Bft)
20.10.2013 03:34 14,9 C 12,8 C 96 % 1011,1 hPa 0,0 l/m 0 min 0 min 0,0 UV-I 0 W/m 0,0 km/h (0 Bft)
20.10.2013 03:36 14,9 C 12,8 C 96 % 1011,1 hPa 0,0 l/m 0 min 0 min 0,0 UV-I 0 W/m 0,0 km/h (0 Bft)
20.10.2013 03:38 15,0 C 12,8 C 96 % 1011,2 hPa 0,0 l/m 0 min 0 min 0,0 UV-I 0 W/m 7,7 km/h (2 Bft)
20.10.2013 03:40 15,1 C 13,3 C 96 % 1011,2 hPa 0,0 l/m 0 min 0 min 0,0 UV-I 0 W/m 2,6 km/h (1 Bft)
20.10.2013 03:42 15,1 C 13,3 C 95 % 1011,3 hPa 0,0 l/m 0 min 0 min 0,0 UV-I 0 W/m 7,7 km/h (2 Bft)
20.10.2013 03:44 15,2 C 12,8 C 95 % 1011,2 hPa 0,0 l/m 0 min 0 min 0,0 UV-I 0 W/m 0,0 km/h (0 Bft)
20.10.2013 03:46 15,2 C 13,3 C 95 % 1011,3 hPa 0,0 l/m 0 min 0 min 0,0 UV-I 0 W/m 0,0 km/h (0 Bft)
20.10.2013 03:48 15,2 C 12,8 C 95 % 1011,3 hPa 0,0 l/m 0 min 0 min 0,0 UV-I 0 W/m 0,0 km/h (0 Bft)
20.10.2013 03:50 15,2 C 12,8 C 95 % 1011,3 hPa 0,0 l/m 0 min 0 min 0,0 UV-I 0 W/m 2,6 km/h (1 Bft)
20.10.2013 03:52 15,2 C 13,3 C 95 % 1011,2 hPa 0,0 l/m 0 min 0 min 0,0 UV-I 0 W/m 7,7 km/h (2 Bft)
20.10.2013 03:54 15,2 C 12,8 C 95 % 1011,3 hPa 0,0 l/m 0 min 0 min 0,0 UV-I 0 W/m 0,0 km/h (0 Bft)
20.10.2013 03:56 15,2 C 12,8 C 95 % 1011,2 hPa 0,0 l/m 0 min 0 min 0,0 UV-I 0 W/m 0,0 km/h (0 Bft)
20.10.2013 03:58 15,2 C 12,8 C 95 % 1011,2 hPa 0,0 l/m 0 min 0 min 0,0 UV-I 0 W/m 0,0 km/h (0 Bft)
20.10.2013 04:00 15,2 C 12,8 C 95 % 1011,3 hPa 0,0 l/m 0 min 0 min 0,0 UV-I 0 W/m 0,0 km/h (0 Bft)
20.10.2013 04:02 15,2 C 12,8 C 95 % 1011,2 hPa 0,0 l/m 0 min 0 min 0,0 UV-I 0 W/m 0,0 km/h (0 Bft)
20.10.2013 04:06 15,2 C 12,8 C 95 % 1011,3 hPa 0,0 l/m 0 min 0 min 0,0 UV-I 0 W/m 0,0 km/h (0 Bft)
20.10.2013 04:08 15,2 C 12,8 C 95 % 1011,4 hPa 0,0 l/m 0 min 0 min 0,0 UV-I 0 W/m 0,0 km/h (0 Bft)
20.10.2013 04:10 15,2 C 12,8 C 95 % 1011,3 hPa 0,0 l/m 0 min 0 min 0,0 UV-I 0 W/m 5,1 km/h (1 Bft)
20.10.2013 04:12 15,2 C 12,2 C 95 % 1011,3 hPa 0,0 l/m 0 min 0 min 0,0 UV-I 0 W/m 2,6 km/h (1 Bft)
20.10.2013 04:14 15,2 C 12,2 C 95 % 1011,4 hPa 0,0 l/m 0 min 0 min 0,0 UV-I 0 W/m 0,0 km/h (0 Bft)
20.10.2013 04:16 15,1 C 12,2 C 94 % 1011,3 hPa 0,0 l/m 0 min 0 min 0,0 UV-I 0 W/m 2,6 km/h (1 Bft)
20.10.2013 04:18 15,1 C 12,2 C 94 % 1011,3 hPa 0,0 l/m 0 min 0 min 0,0 UV-I 0 W/m 0,0 km/h (0 Bft)
20.10.2013 04:20 15,1 C 12,2 C 94 % 1011,3 hPa 0,0 l/m 0 min 0 min 0,0 UV-I 0 W/m 2,6 km/h (1 Bft)
20.10.2013 04:22 15,0 C 12,8 C 94 % 1011,3 hPa 0,0 l/m 0 min 0 min 0,0 UV-I 0 W/m 0,0 km/h (0 Bft)
20.10.2013 04:24 15,0 C 12,8 C 94 % 1011,4 hPa 0,0 l/m 0 min 0 min 0,0 UV-I 0 W/m 2,6 km/h (1 Bft)
20.10.2013 04:26 15,0 C 12,8 C 95 % 1011,4 hPa 0,0 l/m 0 min 0 min 0,0 UV-I 0 W/m 0,0 km/h (0 Bft)
20.10.2013 04:28 15,0 C 12,8 C 95 % 1011,4 hPa 0,0 l/m 0 min 0 min 0,0 UV-I 0 W/m 12,9 km/h (3 Bft)
20.10.2013 04:30 15,1 C 12,8 C 95 % 1011,4 hPa 0,0 l/m 0 min 0 min 0,0 UV-I 0 W/m 5,1 km/h (1 Bft)
20.10.2013 04:32 15,1 C 12,8 C 95 % 1011,4 hPa 0,0 l/m 0 min 0 min 0,0 UV-I 0 W/m 0,0 km/h (0 Bft)
20.10.2013 04:34 15,1 C 12,8 C 95 % 1011,4 hPa 0,0 l/m 0 min 0 min 0,0 UV-I 0 W/m 7,7 km/h (2 Bft)
20.10.2013 04:36 15,2 C 12,8 C 95 % 1011,4 hPa 0,0 l/m 0 min 0 min 0,0 UV-I 0 W/m 0,0 km/h (0 Bft)
20.10.2013 04:38 15,2 C 12,8 C 95 % 1011,3 hPa 0,0 l/m 0 min 0 min 0,0 UV-I 0 W/m 7,7 km/h (2 Bft)
20.10.2013 04:40 15,2 C 12,8 C 95 % 1011,3 hPa 0,0 l/m 0 min 0 min 0,0 UV-I 0 W/m 0,0 km/h (0 Bft)
20.10.2013 04:42 15,2 C 12,8 C 95 % 1011,3 hPa 0,0 l/m 0 min 0 min 0,0 UV-I 0 W/m 0,0 km/h (0 Bft)
20.10.2013 04:44 15,2 C 12,8 C 95 % 1011,3 hPa 0,0 l/m 0 min 0 min 0,0 UV-I 0 W/m 2,6 km/h (1 Bft)
20.10.2013 04:46 15,2 C 12,8 C 95 % 1011,3 hPa 0,0 l/m 0 min 0 min 0,0 UV-I 0 W/m 0,0 km/h (0 Bft)
20.10.2013 04:48 15,2 C 12,8 C 95 % 1011,3 hPa 0,0 l/m 0 min 0 min 0,0 UV-I 0 W/m 0,0 km/h (0 Bft)
20.10.2013 04:50 15,2 C 12,8 C 95 % 1011,3 hPa 0,0 l/m 0 min 0 min 0,0 UV-I 0 W/m 0,0 km/h (0 Bft)
20.10.2013 04:52 15,1 C 12,8 C 95 % 1011,2 hPa 0,0 l/m 0 min 0 min 0,0 UV-I 0 W/m 0,0 km/h (0 Bft)
20.10.2013 04:54 15,1 C 12,8 C 95 % 1011,2 hPa 0,0 l/m 0 min 0 min 0,0 UV-I 0 W/m 0,0 km/h (0 Bft)
20.10.2013 04:56 15,1 C 12,8 C 95 % 1011,2 hPa 0,0 l/m 0 min 0 min 0,0 UV-I 0 W/m 7,7 km/h (2 Bft)
20.10.2013 04:58 15,1 C 12,8 C 95 % 1011,2 hPa 0,0 l/m 0 min 0 min 0,0 UV-I 0 W/m 2,6 km/h (1 Bft)
20.10.2013 05:00 15,2 C 12,8 C 95 % 1011,1 hPa 0,0 l/m 0 min 0 min 0,0 UV-I 0 W/m 0,0 km/h (0 Bft)
20.10.2013 05:02 15,1 C 12,8 C 95 % 1011,1 hPa 0,0 l/m 0 min 0 min 0,0 UV-I 0 W/m 0,0 km/h (0 Bft)
20.10.2013 05:06 15,1 C 12,8 C 95 % 1011,1 hPa 0,0 l/m 0 min 0 min 0,0 UV-I 0 W/m 2,6 km/h (1 Bft)
20.10.2013 05:08 15,1 C 12,8 C 95 % 1011,1 hPa 0,0 l/m 0 min 0 min 0,0 UV-I 0 W/m 0,0 km/h (0 Bft)
20.10.2013 05:10 15,0 C 12,8 C 95 % 1011,2 hPa 0,0 l/m 0 min 0 min 0,0 UV-I 0 W/m 0,0 km/h (0 Bft)
20.10.2013 05:12 14,9 C 12,2 C 95 % 1011,1 hPa 0,0 l/m 0 min 0 min 0,0 UV-I 0 W/m 0,0 km/h (0 Bft)
20.10.2013 05:14 14,8 C 12,8 C 95 % 1011,1 hPa 0,0 l/m 0 min 0 min 0,0 UV-I 0 W/m 2,6 km/h (1 Bft)
20.10.2013 05:16 14,8 C 12,8 C 95 % 1011,1 hPa 0,0 l/m 0 min 0 min 0,0 UV-I 0 W/m 0,0 km/h (0 Bft)
20.10.2013 05:18 14,8 C 12,2 C 95 % 1011,2 hPa 0,0 l/m 0 min 0 min 0,0 UV-I 0 W/m 0,0 km/h (0 Bft)
20.10.2013 05:20 14,7 C 12,2 C 95 % 1011,2 hPa 0,0 l/m 0 min 0 min 0,0 UV-I 0 W/m 0,0 km/h (0 Bft)
20.10.2013 05:22 14,7 C 12,8 C 95 % 1011,2 hPa 0,0 l/m 0 min 0 min 0,0 UV-I 0 W/m 10,3 km/h (2 Bft)
20.10.2013 05:24 14,7 C 12,8 C 95 % 1011,2 hPa 0,0 l/m 0 min 0 min 0,0 UV-I 0 W/m 0,0 km/h (0 Bft)
20.10.2013 05:26 14,7 C 12,8 C 95 % 1011,2 hPa 0,0 l/m 0 min 0 min 0,0 UV-I 0 W/m 0,0 km/h (0 Bft)
20.10.2013 05:28 14,7 C 12,8 C 95 % 1011,2 hPa 0,0 l/m 0 min 0 min 0,0 UV-I 0 W/m 0,0 km/h (0 Bft)
20.10.2013 05:30 14,7 C 12,8 C 95 % 1011,2 hPa 0,0 l/m 0 min 0 min 0,0 UV-I 0 W/m 0,0 km/h (0 Bft)
20.10.2013 05:32 14,7 C 12,8 C 95 % 1011,2 hPa 0,0 l/m 0 min 0 min 0,0 UV-I 0 W/m 7,7 km/h (2 Bft)
20.10.2013 05:34 14,7 C 12,8 C 95 % 1011,2 hPa 0,0 l/m 0 min 0 min 0,0 UV-I 0 W/m 5,1 km/h (1 Bft)
20.10.2013 05:36 14,7 C 12,8 C 95 % 1011,2 hPa 0,0 l/m 0 min 0 min 0,0 UV-I 0 W/m 0,0 km/h (0 Bft)
20.10.2013 05:38 14,7 C 12,8 C 95 % 1011,2 hPa 0,0 l/m 0 min 0 min 0,0 UV-I 0 W/m 0,0 km/h (0 Bft)
20.10.2013 05:40 14,6 C 12,2 C 95 % 1011,2 hPa 0,0 l/m 0 min 0 min 0,0 UV-I 0 W/m 0,0 km/h (0 Bft)
20.10.2013 05:42 14,6 C 12,2 C 95 % 1011,2 hPa 0,0 l/m 0 min 0 min 0,0 UV-I 0 W/m 0,0 km/h (0 Bft)
20.10.2013 05:44 14,6 C 12,2 C 95 % 1011,2 hPa 0,0 l/m 0 min 0 min 0,0 UV-I 0 W/m 0,0 km/h (0 Bft)
20.10.2013 05:46 14,6 C 12,2 C 95 % 1011,1 hPa 0,0 l/m 0 min 0 min 0,0 UV-I 0 W/m 2,6 km/h (1 Bft)
20.10.2013 05:48 14,6 C 12,2 C 96 % 1011,1 hPa 0,0 l/m 0 min 0 min 0,0 UV-I 0 W/m 0,0 km/h (0 Bft)
20.10.2013 05:50 14,6 C 12,2 C 96 % 1011,1 hPa 0,0 l/m 0 min 0 min 0,0 UV-I 0 W/m 0,0 km/h (0 Bft)
20.10.2013 05:52 14,5 C 12,2 C 96 % 1011,1 hPa 0,0 l/m 0 min 0 min 0,0 UV-I 0 W/m 0,0 km/h (0 Bft)
20.10.2013 05:54 14,5 C 12,2 C 95 % 1011,0 hPa 0,0 l/m 0 min 0 min 0,0 UV-I 0 W/m 5,1 km/h (1 Bft)
20.10.2013 05:56 14,5 C 12,2 C 96 % 1011,1 hPa 0,0 l/m 0 min 0 min 0,0 UV-I 0 W/m 0,0 km/h (0 Bft)
20.10.2013 05:58 14,5 C 12,2 C 96 % 1011,2 hPa 0,0 l/m 0 min 0 min 0,0 UV-I 0 W/m 0,0 km/h (0 Bft)
20.10.2013 06:00 14,4 C 12,2 C 96 % 1011,1 hPa 0,0 l/m 0 min 0 min 0,0 UV-I 0 W/m 0,0 km/h (0 Bft)
20.10.2013 06:02 14,4 C 12,2 C 96 % 1011,0 hPa 0,0 l/m 0 min 0 min 0,0 UV-I 0 W/m 2,6 km/h (1 Bft)
20.10.2013 06:06 14,4 C 12,2 C 96 % 1010,9 hPa 0,0 l/m 0 min 0 min 0,0 UV-I 0 W/m 0,0 km/h (0 Bft)
20.10.2013 06:08 14,4 C 12,2 C 96 % 1010,9 hPa 0,0 l/m 0 min 0 min 0,0 UV-I 0 W/m 0,0 km/h (0 Bft)
20.10.2013 06:10 14,4 C 12,2 C 96 % 1010,9 hPa 0,0 l/m 0 min 0 min 0,0 UV-I 0 W/m 0,0 km/h (0 Bft)
20.10.2013 06:12 14,4 C 12,2 C 96 % 1010,9 hPa 0,0 l/m 0 min 0 min 0,0 UV-I 0 W/m 0,0 km/h (0 Bft)
20.10.2013 06:14 14,3 C 12,2 C 96 % 1011,0 hPa 0,0 l/m 0 min 0 min 0,0 UV-I 0 W/m 0,0 km/h (0 Bft)
20.10.2013 06:16 14,3 C 12,2 C 96 % 1011,1 hPa 0,0 l/m 0 min 0 min 0,0 UV-I 0 W/m 0,0 km/h (0 Bft)
20.10.2013 06:18 14,3 C 12,2 C 96 % 1011,1 hPa 0,0 l/m 0 min 0 min 0,0 UV-I 0 W/m 7,7 km/h (2 Bft)
20.10.2013 06:20 14,3 C 12,2 C 96 % 1011,1 hPa 0,0 l/m 0 min 0 min 0,0 UV-I 0 W/m 0,0 km/h (0 Bft)
20.10.2013 06:22 14,3 C 12,2 C 96 % 1011,0 hPa 0,0 l/m 0 min 0 min 0,0 UV-I 0 W/m 2,6 km/h (1 Bft)
20.10.2013 06:24 14,3 C 12,2 C 96 % 1011,1 hPa 0,0 l/m 0 min 0 min 0,0 UV-I 0 W/m 2,6 km/h (1 Bft)
20.10.2013 06:26 14,3 C 12,2 C 96 % 1011,2 hPa 0,0 l/m 0 min 0 min 0,0 UV-I 0 W/m 0,0 km/h (0 Bft)
20.10.2013 06:28 14,4 C 12,8 C 96 % 1011,1 hPa 0,0 l/m 0 min 0 min 0,0 UV-I 0 W/m 5,1 km/h (1 Bft)
20.10.2013 06:30 14,4 C 12,8 C 96 % 1011,2 hPa 0,0 l/m 0 min 0 min 0,0 UV-I 0 W/m 0,0 km/h (0 Bft)
20.10.2013 06:32 14,4 C 12,8 C 96 % 1011,2 hPa 0,0 l/m 0 min 0 min 0,0 UV-I 0 W/m 0,0 km/h (0 Bft)
20.10.2013 06:34 14,4 C 12,2 C 96 % 1011,2 hPa 0,0 l/m 0 min 0 min 0,0 UV-I 0 W/m 0,0 km/h (0 Bft)
20.10.2013 06:36 14,4 C 12,2 C 96 % 1011,2 hPa 0,0 l/m 0 min 0 min 0,0 UV-I 0 W/m 0,0 km/h (0 Bft)
20.10.2013 06:38 14,4 C 12,2 C 96 % 1011,2 hPa 0,0 l/m 0 min 0 min 0,0 UV-I 0 W/m 0,0 km/h (0 Bft)
20.10.2013 06:40 14,3 C 12,2 C 96 % 1011,1 hPa 0,0 l/m 0 min 0 min 0,0 UV-I 0 W/m 2,6 km/h (1 Bft)
20.10.2013 06:42 14,3 C 12,2 C 96 % 1011,0 hPa 0,0 l/m 0 min 0 min 0,0 UV-I 0 W/m 0,0 km/h (0 Bft)
20.10.2013 06:44 14,3 C 12,2 C 96 % 1010,9 hPa 0,0 l/m 0 min 0 min 0,0 UV-I 0 W/m 0,0 km/h (0 Bft)
20.10.2013 06:46 14,3 C 12,2 C 96 % 1010,9 hPa 0,0 l/m 0 min 0 min 0,0 UV-I 0 W/m 5,1 km/h (1 Bft)
20.10.2013 06:48 14,3 C 12,2 C 96 % 1011,0 hPa 0,0 l/m 0 min 0 min 0,0 UV-I 0 W/m 0,0 km/h (0 Bft)
20.10.2013 06:50 14,3 C 12,2 C 96 % 1011,0 hPa 0,0 l/m 0 min 0 min 0,0 UV-I 0 W/m 0,0 km/h (0 Bft)
20.10.2013 06:52 14,3 C 12,2 C 96 % 1011,0 hPa 0,0 l/m 0 min 0 min 0,0 UV-I 0 W/m 0,0 km/h (0 Bft)
20.10.2013 06:54 14,3 C 12,2 C 96 % 1011,1 hPa 0,0 l/m 0 min 0 min 0,0 UV-I 0 W/m 0,0 km/h (0 Bft)
20.10.2013 06:56 14,2 C 12,2 C 96 % 1011,1 hPa 0,0 l/m 0 min 0 min 0,0 UV-I 0 W/m 0,0 km/h (0 Bft)
20.10.2013 06:58 14,2 C 12,2 C 96 % 1011,1 hPa 0,0 l/m 0 min 0 min 0,0 UV-I 0 W/m 0,0 km/h (0 Bft)
20.10.2013 07:00 14,2 C 12,2 C 96 % 1011,1 hPa 0,0 l/m 0 min 0 min 0,0 UV-I 0 W/m 0,0 km/h (0 Bft)
20.10.2013 07:02 14,2 C 12,2 C 96 % 1010,9 hPa 0,0 l/m 0 min 0 min 0,0 UV-I 0 W/m 0,0 km/h (0 Bft)
20.10.2013 07:06 14,2 C 12,2 C 96 % 1011,0 hPa 0,0 l/m 0 min 0 min 0,0 UV-I 0 W/m 0,0 km/h (0 Bft)
20.10.2013 07:08 14,2 C 12,2 C 96 % 1011,0 hPa 0,0 l/m 0 min 0 min 0,0 UV-I 0 W/m 0,0 km/h (0 Bft)
20.10.2013 07:10 14,2 C 12,2 C 96 % 1010,9 hPa 0,0 l/m 0 min 0 min 0,0 UV-I 0 W/m 0,0 km/h (0 Bft)
20.10.2013 07:12 14,2 C 12,2 C 96 % 1011,0 hPa 0,0 l/m 0 min 0 min 0,0 UV-I 0 W/m 0,0 km/h (0 Bft)
20.10.2013 07:14 14,2 C 12,2 C 96 % 1011,0 hPa 0,0 l/m 0 min 0 min 0,0 UV-I 0 W/m 0,0 km/h (0 Bft)
20.10.2013 07:16 14,2 C 12,2 C 96 % 1010,9 hPa 0,0 l/m 0 min 0 min 0,0 UV-I 0 W/m 0,0 km/h (0 Bft)
20.10.2013 07:18 14,2 C 12,2 C 96 % 1010,8 hPa 0,0 l/m 0 min 0 min 0,0 UV-I 0 W/m 0,0 km/h (0 Bft)
20.10.2013 07:20 14,2 C 12,2 C 96 % 1010,8 hPa 0,0 l/m 0 min 0 min 0,0 UV-I 0 W/m 0,0 km/h (0 Bft)
20.10.2013 07:22 14,2 C 12,2 C 96 % 1010,9 hPa 0,0 l/m 0 min 0 min 0,0 UV-I 0 W/m 0,0 km/h (0 Bft)
20.10.2013 07:24 14,2 C 11,7 C 96 % 1010,9 hPa 0,0 l/m 0 min 0 min 0,0 UV-I 0 W/m 0,0 km/h (0 Bft)
20.10.2013 07:26 14,2 C 12,2 C 96 % 1011,0 hPa 0,0 l/m 0 min 0 min 0,0 UV-I 0 W/m 5,1 km/h (1 Bft)
20.10.2013 07:28 14,2 C 12,2 C 96 % 1011,0 hPa 0,0 l/m 0 min 0 min 0,0 UV-I 0 W/m 7,7 km/h (2 Bft)
20.10.2013 07:30 14,2 C 12,2 C 96 % 1011,1 hPa 0,0 l/m 0 min 0 min 0,0 UV-I 0 W/m 5,1 km/h (1 Bft)
20.10.2013 07:32 14,2 C 12,2 C 96 % 1011,2 hPa 0,0 l/m 0 min 0 min 0,0 UV-I 0 W/m 0,0 km/h (0 Bft)
20.10.2013 07:34 14,2 C 12,2 C 96 % 1011,2 hPa 0,0 l/m 0 min 0 min 0,0 UV-I 0 W/m 0,0 km/h (0 Bft)
20.10.2013 07:36 14,2 C 12,2 C 96 % 1011,0 hPa 0,0 l/m 0 min 0 min 0,0 UV-I 0 W/m 0,0 km/h (0 Bft)
20.10.2013 07:38 14,2 C 12,2 C 96 % 1011,0 hPa 0,0 l/m 0 min 0 min 0,0 UV-I 0 W/m 0,0 km/h (0 Bft)
20.10.2013 07:40 14,2 C 12,2 C 96 % 1011,1 hPa 0,0 l/m 0 min 0 min 0,0 UV-I 0 W/m 0,0 km/h (0 Bft)
20.10.2013 07:42 14,2 C 12,2 C 96 % 1011,1 hPa 0,0 l/m 0 min 0 min 0,0 UV-I 0 W/m 0,0 km/h (0 Bft)
20.10.2013 07:44 14,2 C 12,2 C 96 % 1011,2 hPa 0,0 l/m 0 min 0 min 0,0 UV-I 0 W/m 2,6 km/h (1 Bft)
20.10.2013 07:46 14,2 C 12,2 C 96 % 1011,0 hPa 0,0 l/m 0 min 0 min 0,0 UV-I 0 W/m 0,0 km/h (0 Bft)
20.10.2013 07:48 14,2 C 12,2 C 96 % 1011,0 hPa 0,0 l/m 0 min 0 min 0,0 UV-I 0 W/m 0,0 km/h (0 Bft)
20.10.2013 07:50 14,2 C 12,2 C 96 % 1011,0 hPa 0,0 l/m 0 min 0 min 0,0 UV-I 0 W/m 0,0 km/h (0 Bft)
20.10.2013 07:52 14,2 C 12,2 C 96 % 1011,0 hPa 0,0 l/m 0 min 0 min 0,0 UV-I 0 W/m 0,0 km/h (0 Bft)
20.10.2013 07:54 14,2 C 12,2 C 96 % 1011,2 hPa 0,0 l/m 0 min 0 min 0,0 UV-I 0 W/m 0,0 km/h (0 Bft)
20.10.2013 07:56 14,2 C 12,2 C 96 % 1011,2 hPa 0,0 l/m 0 min 0 min 0,0 UV-I 0 W/m 0,0 km/h (0 Bft)
20.10.2013 07:58 14,2 C 12,2 C 96 % 1011,2 hPa 0,0 l/m 0 min 0 min 0,0 UV-I 0 W/m 0,0 km/h (0 Bft)
20.10.2013 08:00 14,2 C 11,7 C 96 % 1011,2 hPa 0,0 l/m 0 min 0 min 0,0 UV-I 0 W/m 0,0 km/h (0 Bft)
20.10.2013 08:02 14,2 C 11,7 C 96 % 1011,2 hPa 0,0 l/m 0 min 0 min 0,0 UV-I 0 W/m 2,6 km/h (1 Bft)
20.10.2013 08:06 14,2 C 11,7 C 96 % 1011,2 hPa 0,0 l/m 0 min 0 min 0,0 UV-I 0 W/m 7,7 km/h (2 Bft)
20.10.2013 08:08 14,2 C 12,2 C 96 % 1011,3 hPa 0,0 l/m 0 min 0 min 0,0 UV-I 0 W/m 0,0 km/h (0 Bft)
20.10.2013 08:10 14,2 C 12,2 C 96 % 1011,3 hPa 0,0 l/m 0 min 0 min 0,0 UV-I 0 W/m 0,0 km/h (0 Bft)
20.10.2013 08:12 14,2 C 12,2 C 96 % 1011,3 hPa 0,0 l/m 0 min 0 min 0,0 UV-I 0 W/m 0,0 km/h (0 Bft)
20.10.2013 08:14 14,2 C 12,2 C 96 % 1011,3 hPa 0,0 l/m 0 min 0 min 0,0 UV-I 5 W/m 5,1 km/h (1 Bft)
20.10.2013 08:16 14,2 C 12,2 C 96 % 1011,2 hPa 0,0 l/m 0 min 0 min 0,0 UV-I 5 W/m 5,1 km/h (1 Bft)
20.10.2013 08:18 14,2 C 12,2 C 96 % 1011,2 hPa 0,0 l/m 0 min 0 min 0,0 UV-I 7 W/m 7,7 km/h (2 Bft)
20.10.2013 08:20 14,2 C 12,2 C 96 % 1011,2 hPa 0,0 l/m 0 min 0 min 0,0 UV-I 7 W/m 0,0 km/h (0 Bft)
20.10.2013 08:22 14,2 C 12,2 C 96 % 1011,2 hPa 0,0 l/m 0 min 0 min 0,0 UV-I 9 W/m 0,0 km/h (0 Bft)
20.10.2013 08:24 14,2 C 12,2 C 96 % 1011,1 hPa 0,0 l/m 0 min 0 min 0,0 UV-I 11 W/m 0,0 km/h (0 Bft)
20.10.2013 08:26 14,2 C 12,2 C 96 % 1011,0 hPa 0,0 l/m 0 min 0 min 0,0 UV-I 11 W/m 2,6 km/h (1 Bft)
20.10.2013 08:28 14,2 C 12,2 C 96 % 1011,2 hPa 0,0 l/m 0 min 0 min 0,0 UV-I 11 W/m 2,6 km/h (1 Bft)
20.10.2013 08:30 14,2 C 12,2 C 96 % 1011,2 hPa 0,0 l/m 0 min 0 min 0,0 UV-I 12 W/m 2,6 km/h (1 Bft)
20.10.2013 08:32 14,2 C 12,2 C 96 % 1011,2 hPa 0,0 l/m 0 min 0 min 0,0 UV-I 14 W/m 5,1 km/h (1 Bft)
20.10.2013 08:34 14,2 C 12,2 C 96 % 1011,2 hPa 0,0 l/m 0 min 0 min 0,0 UV-I 14 W/m 0,0 km/h (0 Bft)
20.10.2013 08:36 14,2 C 12,2 C 96 % 1011,2 hPa 0,0 l/m 0 min 0 min 0,0 UV-I 18 W/m 7,7 km/h (2 Bft)
20.10.2013 08:38 14,2 C 12,2 C 96 % 1011,2 hPa 0,0 l/m 0 min 0 min 0,0 UV-I 19 W/m 0,0 km/h (0 Bft)
20.10.2013 08:40 14,3 C 12,2 C 96 % 1011,2 hPa 0,0 l/m 0 min 0 min 0,0 UV-I 21 W/m 0,0 km/h (0 Bft)
20.10.2013 08:42 14,3 C 12,2 C 96 % 1011,2 hPa 0,0 l/m 0 min 0 min 0,0 UV-I 23 W/m 0,0 km/h (0 Bft)
20.10.2013 08:44 14,3 C 12,2 C 96 % 1011,3 hPa 0,0 l/m 0 min 0 min 0,0 UV-I 25 W/m 0,0 km/h (0 Bft)
20.10.2013 08:46 14,4 C 12,8 C 96 % 1011,3 hPa 0,0 l/m 0 min 0 min 0,0 UV-I 26 W/m 5,1 km/h (1 Bft)
20.10.2013 08:48 14,4 C 12,8 C 96 % 1011,2 hPa 0,0 l/m 0 min 0 min 0,0 UV-I 28 W/m 7,7 km/h (2 Bft)
20.10.2013 08:50 14,4 C 12,8 C 96 % 1011,2 hPa 0,0 l/m 0 min 0 min 0,0 UV-I 30 W/m 0,0 km/h (0 Bft)
20.10.2013 08:52 14,4 C 12,8 C 96 % 1011,2 hPa 0,0 l/m 0 min 0 min 0,0 UV-I 32 W/m 2,6 km/h (1 Bft)
20.10.2013 08:54 14,4 C 12,8 C 96 % 1011,2 hPa 0,0 l/m 0 min 0 min 0,0 UV-I 33 W/m 5,1 km/h (1 Bft)
20.10.2013 08:56 14,4 C 12,8 C 96 % 1011,2 hPa 0,0 l/m 0 min 0 min 0,0 UV-I 35 W/m 0,0 km/h (0 Bft)
20.10.2013 08:58 14,4 C 12,8 C 96 % 1011,2 hPa 0,0 l/m 0 min 0 min 0,0 UV-I 37 W/m 2,6 km/h (1 Bft)
20.10.2013 09:00 14,4 C 12,8 C 96 % 1011,3 hPa 0,0 l/m 0 min 0 min 0,0 UV-I 39 W/m 0,0 km/h (0 Bft)
20.10.2013 09:02 14,5 C 12,8 C 96 % 1011,3 hPa 0,0 l/m 0 min 0 min 0,0 UV-I 39 W/m 0,0 km/h (0 Bft)
20.10.2013 09:06 14,4 C 12,8 C 96 % 1011,3 hPa 0,0 l/m 0 min 0 min 0,0 UV-I 44 W/m 2,6 km/h (1 Bft)
20.10.2013 09:08 14,4 C 12,8 C 96 % 1011,3 hPa 0,0 l/m 0 min 0 min 0,0 UV-I 46 W/m 2,6 km/h (1 Bft)
20.10.2013 09:10 14,4 C 12,8 C 96 % 1011,2 hPa 0,0 l/m 0 min 0 min 0,0 UV-I 47 W/m 7,7 km/h (2 Bft)
20.10.2013 09:12 14,5 C 12,8 C 96 % 1011,2 hPa 0,0 l/m 0 min 0 min 0,0 UV-I 47 W/m 2,6 km/h (1 Bft)
20.10.2013 09:14 14,5 C 12,8 C 96 % 1011,2 hPa 0,0 l/m 0 min 0 min 0,0 UV-I 47 W/m 2,6 km/h (1 Bft)
20.10.2013 09:16 14,5 C 12,8 C 96 % 1011,2 hPa 0,0 l/m 0 min 0 min 0,0 UV-I 49 W/m 0,0 km/h (0 Bft)
20.10.2013 09:18 14,5 C 12,8 C 95 % 1011,3 hPa 0,0 l/m 0 min 0 min 0,0 UV-I 51 W/m 12,9 km/h (3 Bft)
20.10.2013 09:20 14,4 C 12,8 C 95 % 1011,2 hPa 0,0 l/m 0 min 0 min 0,0 UV-I 53 W/m 7,7 km/h (2 Bft)
20.10.2013 09:22 14,4 C 12,8 C 95 % 1010,9 hPa 0,0 l/m 0 min 0 min 0,0 UV-I 54 W/m 15,4 km/h (3 Bft)
20.10.2013 09:24 14,4 C 13,3 C 95 % 1010,8 hPa 0,0 l/m 0 min 0 min 0,0 UV-I 56 W/m 7,7 km/h (2 Bft)
20.10.2013 09:26 14,5 C 13,3 C 95 % 1010,8 hPa 0,0 l/m 0 min 0 min 0,0 UV-I 60 W/m 7,7 km/h (2 Bft)
20.10.2013 09:28 14,5 C 13,3 C 95 % 1010,8 hPa 0,0 l/m 0 min 0 min 0,0 UV-I 62 W/m 5,1 km/h (1 Bft)
20.10.2013 09:30 14,5 C 13,3 C 95 % 1010,8 hPa 0,0 l/m 0 min 0 min 0,0 UV-I 62 W/m 10,3 km/h (2 Bft)
20.10.2013 09:32 14,5 C 13,3 C 95 % 1010,8 hPa 0,0 l/m 0 min 0 min 0,0 UV-I 62 W/m 5,1 km/h (1 Bft)
20.10.2013 09:34 14,5 C 13,3 C 95 % 1010,8 hPa 0,0 l/m 0 min 0 min 0,0 UV-I 62 W/m 7,7 km/h (2 Bft)
20.10.2013 09:36 14,5 C 13,3 C 95 % 1010,8 hPa 0,0 l/m 0 min 0 min 0,0 UV-I 62 W/m 7,7 km/h (2 Bft)
20.10.2013 09:38 14,5 C 13,3 C 95 % 1010,7 hPa 0,0 l/m 0 min 0 min 0,0 UV-I 63 W/m 0,0 km/h (0 Bft)
20.10.2013 09:40 14,5 C 13,3 C 95 % 1010,8 hPa 0,0 l/m 0 min 0 min 0,0 UV-I 63 W/m 7,7 km/h (2 Bft)
20.10.2013 09:42 14,6 C 13,3 C 95 % 1010,9 hPa 0,0 l/m 0 min 0 min 0,0 UV-I 65 W/m 0,0 km/h (0 Bft)
20.10.2013 09:44 14,6 C 13,3 C 95 % 1010,9 hPa 0,0 l/m 0 min 0 min 0,0 UV-I 65 W/m 0,0 km/h (0 Bft)
20.10.2013 09:46 14,6 C 13,3 C 95 % 1010,8 hPa 0,0 l/m 0 min 0 min 0,0 UV-I 65 W/m 2,6 km/h (1 Bft)
20.10.2013 09:48 14,6 C 13,3 C 95 % 1010,9 hPa 0,0 l/m 0 min 0 min 0,0 UV-I 63 W/m 5,1 km/h (1 Bft)
20.10.2013 09:50 14,6 C 13,3 C 95 % 1010,9 hPa 0,0 l/m 0 min 0 min 0,0 UV-I 63 W/m 0,0 km/h (0 Bft)
20.10.2013 09:52 14,7 C 13,3 C 95 % 1010,9 hPa 0,0 l/m 0 min 0 min 0,0 UV-I 63 W/m 2,6 km/h (1 Bft)
20.10.2013 09:54 14,7 C 13,3 C 95 % 1010,9 hPa 0,0 l/m 0 min 0 min 0,0 UV-I 63 W/m 0,0 km/h (0 Bft)
20.10.2013 09:56 14,7 C 13,3 C 95 % 1011,0 hPa 0,0 l/m 0 min 0 min 0,0 UV-I 62 W/m 5,1 km/h (1 Bft)
20.10.2013 09:58 14,7 C 13,3 C 95 % 1011,1 hPa 0,0 l/m 0 min 0 min 0,0 UV-I 54 W/m 7,7 km/h (2 Bft)
20.10.2013 10:00 14,7 C 13,3 C 95 % 1011,1 hPa 0,0 l/m 0 min 0 min 0,0 UV-I 54 W/m 2,6 km/h (1 Bft)
20.10.2013 10:02 14,8 C 13,3 C 95 % 1011,2 hPa 0,0 l/m 0 min 0 min 0,0 UV-I 56 W/m 5,1 km/h (1 Bft)
20.10.2013 10:06 14,8 C 13,9 C 95 % 1011,2 hPa 0,0 l/m 0 min 0 min 0,0 UV-I 70 W/m 10,3 km/h (2 Bft)
20.10.2013 10:08 14,9 C 13,9 C 95 % 1011,2 hPa 0,0 l/m 0 min 0 min 0,0 UV-I 79 W/m 0,0 km/h (0 Bft)
20.10.2013 10:10 14,9 C 13,9 C 94 % 1011,3 hPa 0,0 l/m 0 min 0 min 0,0 UV-I 83 W/m 7,7 km/h (2 Bft)
20.10.2013 10:12 14,9 C 13,9 C 94 % 1011,3 hPa 0,0 l/m 0 min 0 min 0,0 UV-I 86 W/m 5,1 km/h (1 Bft)
20.10.2013 10:14 14,9 C 13,9 C 94 % 1011,3 hPa 0,0 l/m 0 min 0 min 0,0 UV-I 91 W/m 2,6 km/h (1 Bft)
20.10.2013 10:16 15,0 C 13,9 C 94 % 1011,3 hPa 0,0 l/m 0 min 0 min 0,0 UV-I 97 W/m 0,0 km/h (0 Bft)
20.10.2013 10:18 15,0 C 13,9 C 94 % 1011,4 hPa 0,0 l/m 0 min 0 min 0,0 UV-I 102 W/m 12,9 km/h (3 Bft)
20.10.2013 10:20 15,1 C 13,9 C 94 % 1011,4 hPa 0,0 l/m 0 min 0 min 0,0 UV-I 109 W/m 10,3 km/h (2 Bft)
20.10.2013 10:22 15,1 C 13,9 C 94 % 1011,4 hPa 0,0 l/m 0 min 0 min 0,0 UV-I 113 W/m 7,7 km/h (2 Bft)
20.10.2013 10:24 15,2 C 13,9 C 94 % 1011,4 hPa 0,0 l/m 0 min 0 min 0,0 UV-I 113 W/m 0,0 km/h (0 Bft)
20.10.2013 10:26 15,2 C 13,9 C 94 % 1011,4 hPa 0,0 l/m 0 min 0 min 0,0 UV-I 111 W/m 10,3 km/h (2 Bft)
20.10.2013 10:28 15,2 C 14,4 C 94 % 1011,5 hPa 0,0 l/m 0 min 0 min 0,0 UV-I 109 W/m 7,7 km/h (2 Bft)
20.10.2013 10:30 15,2 C 14,4 C 93 % 1011,5 hPa 0,0 l/m 0 min 0 min 0,0 UV-I 109 W/m 7,7 km/h (2 Bft)
20.10.2013 10:32 15,3 C 14,4 C 93 % 1011,5 hPa 0,0 l/m 0 min 0 min 0,0 UV-I 111 W/m 7,7 km/h (2 Bft)
20.10.2013 10:34 15,3 C 14,4 C 93 % 1011,6 hPa 0,0 l/m 0 min 0 min 0,0 UV-I 109 W/m 5,1 km/h (1 Bft)
20.10.2013 10:36 15,4 C 14,4 C 95 % 1011,6 hPa 0,0 l/m 0 min 0 min 0,0 UV-I 105 W/m 10,3 km/h (2 Bft)
20.10.2013 10:38 15,4 C 14,4 C 93 % 1011,6 hPa 0,0 l/m 0 min 0 min 0,0 UV-I 102 W/m 7,7 km/h (2 Bft)
20.10.2013 10:40 15,4 C 14,4 C 93 % 1011,7 hPa 0,0 l/m 0 min 0 min 0,0 UV-I 100 W/m 7,7 km/h (2 Bft)
20.10.2013 10:42 15,5 C 14,4 C 93 % 1011,7 hPa 0,0 l/m 0 min 0 min 0,0 UV-I 97 W/m 7,7 km/h (2 Bft)
20.10.2013 10:44 15,5 C 14,4 C 93 % 1011,7 hPa 0,0 l/m 0 min 0 min 0,0 UV-I 90 W/m 10,3 km/h (2 Bft)
20.10.2013 10:46 15,5 C 14,4 C 93 % 1011,7 hPa 0,0 l/m 0 min 0 min 0,0 UV-I 88 W/m 5,1 km/h (1 Bft)
20.10.2013 10:48 15,6 C 14,4 C 92 % 1011,8 hPa 0,0 l/m 0 min 0 min 0,0 UV-I 91 W/m 10,3 km/h (2 Bft)
20.10.2013 10:50 15,6 C 14,4 C 92 % 1011,8 hPa 0,0 l/m 0 min 0 min 0,0 UV-I 90 W/m 7,7 km/h (2 Bft)
20.10.2013 10:52 15,6 C 14,4 C 92 % 1011,8 hPa 0,0 l/m 0 min 0 min 0,0 UV-I 93 W/m 10,3 km/h (2 Bft)
20.10.2013 10:54 15,6 C 14,4 C 92 % 1011,7 hPa 0,0 l/m 0 min 0 min 0,0 UV-I 98 W/m 10,3 km/h (2 Bft)
20.10.2013 10:56 15,7 C 14,4 C 92 % 1011,7 hPa 0,0 l/m 0 min 0 min 0,0 UV-I 97 W/m 15,4 km/h (3 Bft)
20.10.2013 10:58 15,7 C 14,4 C 92 % 1011,6 hPa 0,0 l/m 0 min 0 min 0,0 UV-I 90 W/m 10,3 km/h (2 Bft)
20.10.2013 11:00 15,7 C 14,4 C 92 % 1011,7 hPa 0,0 l/m 0 min 0 min 0,0 UV-I 83 W/m 10,3 km/h (2 Bft)
20.10.2013 11:02 15,7 C 14,4 C 92 % 1011,7 hPa 0,0 l/m 0 min 0 min 0,0 UV-I 69 W/m 5,1 km/h (1 Bft)
20.10.2013 11:06 15,7 C 14,4 C 92 % 1011,8 hPa 0,0 l/m 0 min 0 min 0,0 UV-I 65 W/m 10,3 km/h (2 Bft)
20.10.2013 11:08 15,7 C 14,4 C 92 % 1011,8 hPa 0,0 l/m 0 min 0 min 0,0 UV-I 69 W/m 12,9 km/h (3 Bft)
20.10.2013 11:10 15,7 C 14,4 C 92 % 1011,9 hPa 0,0 l/m 0 min 0 min 0,0 UV-I 76 W/m 0,0 km/h (0 Bft)
20.10.2013 11:12 15,7 C 14,4 C 92 % 1011,9 hPa 0,0 l/m 0 min 0 min 0,0 UV-I 77 W/m 10,3 km/h (2 Bft)
20.10.2013 11:14 15,7 C 14,4 C 92 % 1011,9 hPa 0,0 l/m 0 min 0 min 0,0 UV-I 81 W/m 2,6 km/h (1 Bft)
20.10.2013 11:16 15,7 C 14,4 C 92 % 1011,9 hPa 0,0 l/m 0 min 0 min 0,0 UV-I 86 W/m 5,1 km/h (1 Bft)
20.10.2013 11:18 15,8 C 14,4 C 91 % 1011,9 hPa 0,0 l/m 0 min 0 min 0,0 UV-I 95 W/m 10,3 km/h (2 Bft)
20.10.2013 11:20 15,8 C 15,0 C 91 % 1012,0 hPa 0,0 l/m 0 min 0 min 0,0 UV-I 100 W/m 5,1 km/h (1 Bft)
20.10.2013 11:22 15,8 C 15,0 C 91 % 1012,0 hPa 0,0 l/m 0 min 0 min 0,0 UV-I 97 W/m 5,1 km/h (1 Bft)
20.10.2013 11:24 15,9 C 15,0 C 91 % 1011,9 hPa 0,0 l/m 0 min 0 min 0,0 UV-I 100 W/m 12,9 km/h (3 Bft)
20.10.2013 11:26 15,9 C 15,0 C 91 % 1011,9 hPa 0,0 l/m 0 min 0 min 0,0 UV-I 84 W/m 12,9 km/h (3 Bft)
20.10.2013 11:28 15,9 C 15,0 C 91 % 1011,9 hPa 0,0 l/m 0 min 0 min 0,0 UV-I 93 W/m 5,1 km/h (1 Bft)
20.10.2013 11:30 15,9 C 15,0 C 91 % 1011,9 hPa 0,0 l/m 0 min 0 min 0,0 UV-I 125 W/m 2,6 km/h (1 Bft)
20.10.2013 11:32 15,9 C 15,0 C 91 % 1011,9 hPa 0,0 l/m 0 min 0 min 0,0 UV-I 134 W/m 0,0 km/h (0 Bft)
20.10.2013 11:34 16,0 C 15,0 C 91 % 1012,0 hPa 0,0 l/m 0 min 0 min 0,0 UV-I 139 W/m 0,0 km/h (0 Bft)
20.10.2013 11:36 16,1 C 15,0 C 91 % 1011,9 hPa 0,0 l/m 0 min 0 min 0,0 UV-I 134 W/m 7,7 km/h (2 Bft)
20.10.2013 11:38 16,1 C 15,0 C 91 % 1011,9 hPa 0,0 l/m 0 min 0 min 0,0 UV-I 123 W/m 0,0 km/h (0 Bft)
20.10.2013 11:40 16,2 C 15,0 C 91 % 1011,9 hPa 0,0 l/m 0 min 0 min 0,0 UV-I 118 W/m 7,7 km/h (2 Bft)
20.10.2013 11:42 16,2 C 15,0 C 91 % 1011,9 hPa 0,0 l/m 0 min 0 min 0,0 UV-I 118 W/m 5,1 km/h (1 Bft)
20.10.2013 11:44 16,2 C 15,0 C 91 % 1011,9 hPa 0,0 l/m 0 min 0 min 0,0 UV-I 111 W/m 0,0 km/h (0 Bft)
20.10.2013 11:46 16,3 C 15,6 C 91 % 1011,9 hPa 0,0 l/m 0 min 0 min 0,0 UV-I 104 W/m 2,6 km/h (1 Bft)
20.10.2013 11:48 16,3 C 15,6 C 91 % 1012,0 hPa 0,0 l/m 0 min 0 min 0,0 UV-I 120 W/m 0,0 km/h (0 Bft)
20.10.2013 11:50 16,3 C 15,6 C 91 % 1011,9 hPa 0,0 l/m 0 min 0 min 0,0 UV-I 134 W/m 0,0 km/h (0 Bft)
20.10.2013 11:52 16,3 C 15,6 C 91 % 1011,9 hPa 0,0 l/m 0 min 0 min 0,0 UV-I 139 W/m 2,6 km/h (1 Bft)
20.10.2013 11:54 16,4 C 15,6 C 91 % 1011,9 hPa 0,0 l/m 0 min 0 min 0,0 UV-I 132 W/m 0,0 km/h (0 Bft)
20.10.2013 11:56 16,4 C 15,6 C 91 % 1011,9 hPa 0,0 l/m 0 min 0 min 0,0 UV-I 121 W/m 0,0 km/h (0 Bft)
20.10.2013 11:58 16,4 C 15,6 C 91 % 1011,9 hPa 0,0 l/m 0 min 0 min 0,0 UV-I 114 W/m 0,0 km/h (0 Bft)
20.10.2013 12:00 16,5 C 15,6 C 90 % 1011,9 hPa 0,0 l/m 0 min 0 min 0,0 UV-I 120 W/m 0,0 km/h (0 Bft)
20.10.2013 12:02 16,5 C 15,6 C 90 % 1011,9 hPa 0,0 l/m 0 min 0 min 0,0 UV-I 116 W/m 0,0 km/h (0 Bft)
20.10.2013 12:06 16,6 C 15,6 C 90 % 1012,0 hPa 0,0 l/m 0 min 0 min 0,0 UV-I 111 W/m 7,7 km/h (2 Bft)
20.10.2013 12:08 16,6 C 15,6 C 90 % 1012,0 hPa 0,0 l/m 0 min 0 min 0,0 UV-I 116 W/m 0,0 km/h (0 Bft)
20.10.2013 12:10 16,6 C 15,6 C 90 % 1011,9 hPa 0,0 l/m 0 min 2 min 0,0 UV-I 118 W/m 0,0 km/h (0 Bft)
20.10.2013 12:12 16,6 C 15,6 C 90 % 1011,8 hPa 0,0 l/m 0 min 2 min 0,0 UV-I 137 W/m 7,7 km/h (2 Bft)
20.10.2013 12:14 16,6 C 15,6 C 90 % 1011,8 hPa 0,0 l/m 0 min 0 min 0,0 UV-I 155 W/m 0,0 km/h (0 Bft)
20.10.2013 12:16 16,6 C 15,6 C 90 % 1011,9 hPa 0,0 l/m 0 min 0 min 0,0 UV-I 158 W/m 2,6 km/h (1 Bft)
20.10.2013 12:18 16,7 C 15,6 C 90 % 1011,9 hPa 0,0 l/m 0 min 0 min 0,0 UV-I 148 W/m 2,6 km/h (1 Bft)
20.10.2013 12:20 16,7 C 15,6 C 90 % 1011,8 hPa 0,0 l/m 0 min 0 min 0,0 UV-I 163 W/m 0,0 km/h (0 Bft)
20.10.2013 12:22 16,8 C 15,6 C 90 % 1011,9 hPa 0,0 l/m 0 min 0 min 0,0 UV-I 183 W/m 0,0 km/h (0 Bft)
20.10.2013 12:24 16,8 C 16,1 C 90 % 1011,9 hPa 0,0 l/m 0 min 0 min 0,0 UV-I 197 W/m 0,0 km/h (0 Bft)
20.10.2013 12:26 16,9 C 16,1 C 90 % 1011,9 hPa 0,0 l/m 0 min 0 min 0,0 UV-I 190 W/m 0,0 km/h (0 Bft)
20.10.2013 12:28 16,9 C 16,1 C 90 % 1012,0 hPa 0,0 l/m 0 min 0 min 0,0 UV-I 185 W/m 5,1 km/h (1 Bft)
20.10.2013 12:30 17,0 C 16,1 C 90 % 1011,9 hPa 0,0 l/m 0 min 0 min 0,5 UV-I 197 W/m 7,7 km/h (2 Bft)
20.10.2013 12:32 17,1 C 16,1 C 90 % 1011,9 hPa 0,0 l/m 0 min 0 min 0,5 UV-I 230 W/m 5,1 km/h (1 Bft)
20.10.2013 12:34 17,2 C 16,7 C 90 % 1011,8 hPa 0,0 l/m 0 min 0 min 0,5 UV-I 237 W/m 7,7 km/h (2 Bft)
20.10.2013 12:36 17,2 C 16,7 C 89 % 1011,8 hPa 0,0 l/m 0 min 0 min 0,6 UV-I 218 W/m 2,6 km/h (1 Bft)
20.10.2013 12:38 17,3 C 16,7 C 89 % 1011,8 hPa 0,0 l/m 0 min 0 min 0,6 UV-I 214 W/m 0,0 km/h (0 Bft)
20.10.2013 12:40 17,4 C 16,7 C 89 % 1011,8 hPa 0,0 l/m 0 min 0 min 0,5 UV-I 207 W/m 0,0 km/h (0 Bft)
20.10.2013 12:42 17,4 C 16,7 C 88 % 1011,8 hPa 0,0 l/m 0 min 0 min 0,5 UV-I 207 W/m 0,0 km/h (0 Bft)
20.10.2013 12:44 17,4 C 16,7 C 87 % 1011,8 hPa 0,0 l/m 0 min 0 min 0,5 UV-I 216 W/m 10,3 km/h (2 Bft)
20.10.2013 12:46 17,5 C 16,7 C 86 % 1011,8 hPa 0,0 l/m 0 min 0 min 0,5 UV-I 227 W/m 15,4 km/h (3 Bft)
20.10.2013 12:48 17,6 C 16,7 C 86 % 1011,8 hPa 0,0 l/m 0 min 0 min 0,6 UV-I 223 W/m 7,7 km/h (2 Bft)
20.10.2013 12:50 17,6 C 16,7 C 85 % 1011,7 hPa 0,0 l/m 0 min 0 min 0,6 UV-I 230 W/m 10,3 km/h (2 Bft)
20.10.2013 12:52 17,7 C 16,7 C 85 % 1011,7 hPa 0,0 l/m 0 min 0 min 0,6 UV-I 237 W/m 7,7 km/h (2 Bft)
20.10.2013 12:54 17,7 C 16,7 C 84 % 1011,8 hPa 0,0 l/m 0 min 0 min 0,6 UV-I 239 W/m 7,7 km/h (2 Bft)
20.10.2013 12:56 17,8 C 16,7 C 84 % 1011,7 hPa 0,0 l/m 0 min 0 min 0,6 UV-I 244 W/m 2,6 km/h (1 Bft)
20.10.2013 12:58 17,9 C 16,7 C 84 % 1011,7 hPa 0,0 l/m 0 min 0 min 0,6 UV-I 220 W/m 7,7 km/h (2 Bft)
20.10.2013 13:00 17,9 C 16,7 C 83 % 1011,7 hPa 0,0 l/m 0 min 0 min 0,6 UV-I 237 W/m 15,4 km/h (3 Bft)
20.10.2013 13:02 17,9 C 16,7 C 82 % 1011,8 hPa 0,0 l/m 0 min 0 min 0,6 UV-I 253 W/m 15,4 km/h (3 Bft)
20.10.2013 13:06 18,1 C 17,2 C 83 % 1011,7 hPa 0,0 l/m 0 min 0 min 0,6 UV-I 260 W/m 10,3 km/h (2 Bft)
20.10.2013 13:08 18,1 C 17,2 C 82 % 1011,7 hPa 0,0 l/m 0 min 0 min 0,6 UV-I 239 W/m 10,3 km/h (2 Bft)
20.10.2013 13:10 18,2 C 17,2 C 83 % 1011,7 hPa 0,0 l/m 0 min 0 min 0,6 UV-I 225 W/m 5,1 km/h (1 Bft)
20.10.2013 13:12 18,2 C 17,2 C 82 % 1011,7 hPa 0,0 l/m 2 min 0 min 0,6 UV-I 267 W/m 10,3 km/h (2 Bft)
20.10.2013 13:14 18,3 C 17,2 C 81 % 1011,7 hPa 0,0 l/m 0 min 0 min 0,6 UV-I 239 W/m 10,3 km/h (2 Bft)
20.10.2013 13:16 18,3 C 17,2 C 81 % 1011,7 hPa 0,0 l/m 0 min 0 min 0,7 UV-I 253 W/m 18,0 km/h (3 Bft)
20.10.2013 13:18 18,3 C 17,2 C 80 % 1011,7 hPa 0,0 l/m 0 min 0 min 0,7 UV-I 253 W/m 10,3 km/h (2 Bft)
20.10.2013 13:20 18,4 C 17,2 C 81 % 1011,7 hPa 0,0 l/m 0 min 0 min 0,6 UV-I 236 W/m 12,9 km/h (3 Bft)
20.10.2013 13:22 18,4 C 17,2 C 81 % 1011,8 hPa 0,0 l/m 0 min 0 min 0,7 UV-I 237 W/m 7,7 km/h (2 Bft)
20.10.2013 13:24 18,4 C 17,2 C 81 % 1011,8 hPa 0,0 l/m 0 min 0 min 0,6 UV-I 225 W/m 0,0 km/h (0 Bft)
20.10.2013 13:26 18,4 C 17,2 C 80 % 1011,8 hPa 0,0 l/m 0 min 0 min 0,5 UV-I 209 W/m 20,6 km/h (4 Bft)
20.10.2013 13:28 18,4 C 17,2 C 80 % 1011,8 hPa 0,0 l/m 0 min 0 min 0,5 UV-I 197 W/m 12,9 km/h (3 Bft)
20.10.2013 13:30 18,4 C 17,2 C 80 % 1011,8 hPa 0,0 l/m 0 min 0 min 0,5 UV-I 188 W/m 0,0 km/h (0 Bft)
20.10.2013 13:32 18,4 C 17,2 C 80 % 1011,9 hPa 0,0 l/m 0 min 0 min 0,5 UV-I 179 W/m 15,4 km/h (3 Bft)
20.10.2013 13:34 18,4 C 17,2 C 80 % 1011,8 hPa 0,0 l/m 0 min 0 min 0,0 UV-I 169 W/m 12,9 km/h (3 Bft)
20.10.2013 13:36 18,3 C 17,2 C 81 % 1011,7 hPa 0,0 l/m 0 min 0 min 0,0 UV-I 162 W/m 10,3 km/h (2 Bft)
20.10.2013 13:38 18,3 C 17,2 C 80 % 1011,8 hPa 0,0 l/m 0 min 0 min 0,0 UV-I 151 W/m 18,0 km/h (3 Bft)
20.10.2013 13:40 18,3 C 17,2 C 80 % 1011,8 hPa 0,0 l/m 0 min 0 min 0,0 UV-I 127 W/m 10,3 km/h (2 Bft)
20.10.2013 13:42 18,3 C 17,2 C 80 % 1011,8 hPa 0,0 l/m 0 min 0 min 0,0 UV-I 130 W/m 10,3 km/h (2 Bft)
20.10.2013 13:44 18,2 C 17,2 C 80 % 1011,7 hPa 0,0 l/m 0 min 0 min 0,0 UV-I 148 W/m 0,0 km/h (0 Bft)
20.10.2013 13:46 18,2 C 17,2 C 81 % 1011,7 hPa 0,0 l/m 0 min 0 min 0,0 UV-I 163 W/m 0,0 km/h (0 Bft)
20.10.2013 13:48 18,2 C 17,2 C 80 % 1011,7 hPa 0,0 l/m 0 min 0 min 0,0 UV-I 149 W/m 0,0 km/h (0 Bft)
20.10.2013 13:50 18,2 C 17,2 C 80 % 1011,7 hPa 0,0 l/m 0 min 0 min 0,0 UV-I 142 W/m 12,9 km/h (3 Bft)
20.10.2013 13:52 18,2 C 16,7 C 79 % 1011,6 hPa 0,0 l/m 0 min 0 min 0,0 UV-I 120 W/m 0,0 km/h (0 Bft)
20.10.2013 13:54 18,2 C 16,7 C 80 % 1011,6 hPa 0,0 l/m 0 min 0 min 0,0 UV-I 120 W/m 0,0 km/h (0 Bft)
20.10.2013 13:56 18,2 C 16,7 C 80 % 1011,6 hPa 0,0 l/m 0 min 0 min 0,0 UV-I 125 W/m 18,0 km/h (3 Bft)
20.10.2013 13:58 18,1 C 16,7 C 80 % 1011,6 hPa 0,0 l/m 0 min 0 min 0,0 UV-I 114 W/m 10,3 km/h (2 Bft)
20.10.2013 14:00 18,1 C 16,7 C 80 % 1011,6 hPa 0,0 l/m 0 min 0 min 0,0 UV-I 123 W/m 0,0 km/h (0 Bft)
20.10.2013 14:02 18,1 C 16,7 C 80 % 1011,6 hPa 0,0 l/m 0 min 2 min 0,0 UV-I 137 W/m 15,4 km/h (3 Bft)
20.10.2013 14:06 18,0 C 16,7 C 81 % 1011,6 hPa 0,0 l/m 0 min 2 min 0,0 UV-I 134 W/m 12,9 km/h (3 Bft)
20.10.2013 14:08 17,9 C 16,1 C 81 % 1011,6 hPa 0,0 l/m 0 min 2 min 0,0 UV-I 109 W/m 7,7 km/h (2 Bft)
20.10.2013 14:10 17,9 C 16,1 C 82 % 1011,6 hPa 0,0 l/m 0 min 0 min 0,0 UV-I 98 W/m 5,1 km/h (1 Bft)
20.10.2013 14:12 17,8 C 16,1 C 82 % 1011,7 hPa 0,0 l/m 0 min 0 min 0,0 UV-I 97 W/m 10,3 km/h (2 Bft)
20.10.2013 14:14 17,8 C 16,1 C 81 % 1011,6 hPa 0,0 l/m 0 min 0 min 0,0 UV-I 86 W/m 12,9 km/h (3 Bft)
20.10.2013 14:16 17,7 C 16,1 C 82 % 1011,6 hPa 0,0 l/m 0 min 0 min 0,0 UV-I 77 W/m 10,3 km/h (2 Bft)
20.10.2013 14:18 17,7 C 16,1 C 82 % 1011,7 hPa 0,0 l/m 0 min 0 min 0,0 UV-I 69 W/m 10,3 km/h (2 Bft)
20.10.2013 14:20 17,7 C 16,1 C 82 % 1011,7 hPa 0,0 l/m 0 min 0 min 0,0 UV-I 54 W/m 5,1 km/h (1 Bft)
20.10.2013 14:22 17,6 C 16,1 C 81 % 1011,7 hPa 0,0 l/m 0 min 0 min 0,0 UV-I 53 W/m 12,9 km/h (3 Bft)
20.10.2013 14:24 17,6 C 16,1 C 81 % 1011,6 hPa 0,0 l/m 0 min 0 min 0,0 UV-I 60 W/m 5,1 km/h (1 Bft)
20.10.2013 14:26 17,6 C 16,1 C 82 % 1011,6 hPa 0,0 l/m 0 min 0 min 0,0 UV-I 76 W/m 5,1 km/h (1 Bft)
20.10.2013 14:28 17,6 C 16,1 C 82 % 1011,5 hPa 0,0 l/m 0 min 2 min 0,0 UV-I 81 W/m 0,0 km/h (0 Bft)
20.10.2013 14:30 17,5 C 16,1 C 83 % 1011,5 hPa 0,0 l/m 0 min 2 min 0,0 UV-I 88 W/m 7,7 km/h (2 Bft)
20.10.2013 14:32 17,5 C 15,6 C 82 % 1011,5 hPa 0,0 l/m 0 min 2 min 0,0 UV-I 91 W/m 10,3 km/h (2 Bft)
20.10.2013 14:34 17,5 C 15,6 C 82 % 1011,5 hPa 0,0 l/m 0 min 2 min 0,0 UV-I 88 W/m 12,9 km/h (3 Bft)
20.10.2013 14:36 17,5 C 15,6 C 82 % 1011,5 hPa 0,0 l/m 0 min 2 min 0,0 UV-I 79 W/m 12,9 km/h (3 Bft)
20.10.2013 14:38 17,4 C 15,6 C 83 % 1011,5 hPa 0,0 l/m 0 min 2 min 0,0 UV-I 81 W/m 0,0 km/h (0 Bft)
20.10.2013 14:40 17,4 C 15,6 C 83 % 1011,6 hPa 0,0 l/m 0 min 0 min 0,0 UV-I 81 W/m 7,7 km/h (2 Bft)
20.10.2013 14:42 17,4 C 15,6 C 84 % 1011,6 hPa 0,0 l/m 0 min 2 min 0,0 UV-I 74 W/m 7,7 km/h (2 Bft)
20.10.2013 14:44 17,4 C 15,6 C 84 % 1011,5 hPa 0,0 l/m 0 min 2 min 0,0 UV-I 63 W/m 0,0 km/h (0 Bft)
20.10.2013 14:46 17,4 C 15,6 C 84 % 1011,6 hPa 0,0 l/m 0 min 0 min 0,0 UV-I 70 W/m 7,7 km/h (2 Bft)
20.10.2013 14:48 17,4 C 15,6 C 84 % 1011,7 hPa 0,0 l/m 0 min 0 min 0,0 UV-I 93 W/m 5,1 km/h (1 Bft)
20.10.2013 14:50 17,4 C 16,1 C 84 % 1011,7 hPa 0,0 l/m 0 min 0 min 0,0 UV-I 128 W/m 2,6 km/h (1 Bft)
20.10.2013 14:52 17,4 C 16,1 C 84 % 1011,6 hPa 0,0 l/m 0 min 0 min 0,0 UV-I 113 W/m 2,6 km/h (1 Bft)
20.10.2013 14:54 17,4 C 16,1 C 84 % 1011,6 hPa 0,0 l/m 0 min 0 min 0,0 UV-I 97 W/m 0,0 km/h (0 Bft)
20.10.2013 14:56 17,4 C 16,1 C 84 % 1011,5 hPa 0,0 l/m 0 min 0 min 0,0 UV-I 93 W/m 2,6 km/h (1 Bft)
20.10.2013 14:58 17,5 C 16,1 C 84 % 1011,6 hPa 0,0 l/m 0 min 0 min 0,0 UV-I 93 W/m 2,6 km/h (1 Bft)
20.10.2013 15:00 17,5 C 16,1 C 84 % 1011,5 hPa 0,0 l/m 0 min 0 min 0,0 UV-I 98 W/m 5,1 km/h (1 Bft)
20.10.2013 15:02 17,5 C 16,1 C 84 % 1011,5 hPa 0,0 l/m 0 min 0 min 0,0 UV-I 98 W/m 2,6 km/h (1 Bft)
20.10.2013 15:06 17,6 C 16,1 C 83 % 1011,5 hPa 0,0 l/m 0 min 0 min 0,0 UV-I 107 W/m 5,1 km/h (1 Bft)
20.10.2013 15:08 17,6 C 16,1 C 83 % 1011,6 hPa 0,0 l/m 0 min 2 min 0,0 UV-I 113 W/m 7,7 km/h (2 Bft)
20.10.2013 15:10 17,6 C 16,1 C 83 % 1011,5 hPa 0,0 l/m 0 min 2 min 0,0 UV-I 111 W/m 5,1 km/h (1 Bft)
20.10.2013 15:12 17,6 C 16,1 C 83 % 1011,5 hPa 0,0 l/m 0 min 0 min 0,0 UV-I 118 W/m 2,6 km/h (1 Bft)
20.10.2013 15:14 17,6 C 16,1 C 83 % 1011,5 hPa 0,0 l/m 0 min 2 min 0,0 UV-I 123 W/m 7,7 km/h (2 Bft)
20.10.2013 15:16 17,6 C 16,1 C 84 % 1011,5 hPa 0,0 l/m 0 min 2 min 0,0 UV-I 118 W/m 0,0 km/h (0 Bft)
20.10.2013 15:18 17,6 C 15,6 C 85 % 1011,5 hPa 0,0 l/m 0 min 2 min 0,0 UV-I 98 W/m 7,7 km/h (2 Bft)
20.10.2013 15:20 17,6 C 15,6 C 85 % 1011,5 hPa 0,0 l/m 0 min 2 min 0,0 UV-I 102 W/m 2,6 km/h (1 Bft)
20.10.2013 15:22 17,6 C 15,6 C 85 % 1011,5 hPa 0,0 l/m 0 min 2 min 0,0 UV-I 113 W/m 0,0 km/h (0 Bft)
20.10.2013 15:24 17,5 C 15,0 C 85 % 1011,5 hPa 0,0 l/m 0 min 2 min 0,0 UV-I 109 W/m 10,3 km/h (2 Bft)
20.10.2013 15:26 17,4 C 15,0 C 85 % 1011,4 hPa 0,0 l/m 0 min 2 min 0,0 UV-I 93 W/m 18,0 km/h (3 Bft)
20.10.2013 15:28 17,4 C 15,0 C 85 % 1011,5 hPa 0,0 l/m 0 min 2 min 0,0 UV-I 97 W/m 7,7 km/h (2 Bft)
20.10.2013 15:30 17,4 C 15,0 C 85 % 1011,5 hPa 0,0 l/m 0 min 2 min 0,0 UV-I 104 W/m 18,0 km/h (3 Bft)
20.10.2013 15:32 17,4 C 15,0 C 85 % 1011,6 hPa 0,0 l/m 0 min 0 min 0,0 UV-I 105 W/m 10,3 km/h (2 Bft)
20.10.2013 15:34 17,4 C 15,0 C 85 % 1011,5 hPa 0,0 l/m 0 min 0 min 0,0 UV-I 107 W/m 12,9 km/h (3 Bft)
20.10.2013 15:36 17,4 C 15,0 C 85 % 1011,5 hPa 0,0 l/m 0 min 0 min 0,0 UV-I 90 W/m 18,0 km/h (3 Bft)
20.10.2013 15:38 17,4 C 15,0 C 84 % 1011,5 hPa 0,0 l/m 0 min 0 min 0,0 UV-I 90 W/m 18,0 km/h (3 Bft)
20.10.2013 15:40 17,4 C 15,0 C 84 % 1011,3 hPa 0,0 l/m 0 min 2 min 0,0 UV-I 100 W/m 12,9 km/h (3 Bft)
20.10.2013 15:42 17,4 C 15,0 C 84 % 1011,3 hPa 0,0 l/m 0 min 2 min 0,0 UV-I 102 W/m 18,0 km/h (3 Bft)
20.10.2013 15:44 17,4 C 15,0 C 84 % 1011,3 hPa 0,0 l/m 0 min 2 min 0,0 UV-I 97 W/m 7,7 km/h (2 Bft)
20.10.2013 15:46 17,3 C 15,0 C 84 % 1011,4 hPa 0,0 l/m 0 min 2 min 0,0 UV-I 97 W/m 10,3 km/h (2 Bft)
20.10.2013 15:48 17,3 C 15,0 C 84 % 1011,4 hPa 0,0 l/m 0 min 2 min 0,0 UV-I 95 W/m 15,4 km/h (3 Bft)
20.10.2013 15:50 17,3 C 15,0 C 84 % 1011,4 hPa 0,0 l/m 0 min 0 min 0,0 UV-I 105 W/m 2,6 km/h (1 Bft)
20.10.2013 15:52 17,3 C 15,0 C 85 % 1011,3 hPa 0,0 l/m 0 min 2 min 0,0 UV-I 127 W/m 0,0 km/h (0 Bft)
20.10.2013 15:54 17,3 C 15,6 C 85 % 1011,2 hPa 0,0 l/m 0 min 0 min 0,0 UV-I 158 W/m 2,6 km/h (1 Bft)
20.10.2013 15:56 17,3 C 15,6 C 85 % 1011,3 hPa 0,0 l/m 0 min 2 min 0,0 UV-I 162 W/m 2,6 km/h (1 Bft)
20.10.2013 15:58 17,4 C 16,1 C 85 % 1011,3 hPa 0,0 l/m 2 min 0 min 0,0 UV-I 192 W/m 7,7 km/h (2 Bft)
20.10.2013 16:00 17,4 C 16,1 C 85 % 1011,3 hPa 0,0 l/m 2 min 0 min 0,0 UV-I 206 W/m 7,7 km/h (2 Bft)
20.10.2013 16:02 17,5 C 16,1 C 85 % 1011,1 hPa 0,0 l/m 2 min 0 min 0,0 UV-I 285 W/m 0,0 km/h (0 Bft)
20.10.2013 16:06 17,8 C 16,7 C 85 % 1011,2 hPa 0,0 l/m 2 min 0 min 0,0 UV-I 183 W/m 7,7 km/h (2 Bft)
20.10.2013 16:08 17,9 C 16,7 C 85 % 1011,1 hPa 0,0 l/m 0 min 0 min 0,0 UV-I 128 W/m 2,6 km/h (1 Bft)
20.10.2013 16:10 17,9 C 16,7 C 84 % 1011,1 hPa 0,0 l/m 0 min 0 min 0,0 UV-I 100 W/m 7,7 km/h (2 Bft)
20.10.2013 16:12 17,8 C 16,7 C 84 % 1011,0 hPa 0,0 l/m 0 min 0 min 0,0 UV-I 118 W/m 12,9 km/h (3 Bft)
20.10.2013 16:14 17,8 C 16,7 C 84 % 1011,0 hPa 0,0 l/m 0 min 0 min 0,0 UV-I 118 W/m 2,6 km/h (1 Bft)
20.10.2013 16:16 17,9 C 16,7 C 84 % 1011,1 hPa 0,0 l/m 2 min 0 min 0,0 UV-I 325 W/m 7,7 km/h (2 Bft)
20.10.2013 16:18 18,1 C 16,7 C 83 % 1011,0 hPa 0,0 l/m 2 min 0 min 0,0 UV-I 206 W/m 5,1 km/h (1 Bft)
20.10.2013 16:20 18,2 C 16,7 C 83 % 1011,0 hPa 0,0 l/m 2 min 0 min 0,0 UV-I 318 W/m 0,0 km/h (0 Bft)
20.10.2013 16:22 18,4 C 16,7 C 83 % 1011,0 hPa 0,0 l/m 2 min 0 min 0,0 UV-I 334 W/m 5,1 km/h (1 Bft)
20.10.2013 16:24 18,6 C 17,2 C 82 % 1010,9 hPa 0,0 l/m 2 min 0 min 0,0 UV-I 320 W/m 10,3 km/h (2 Bft)
20.10.2013 16:26 18,7 C 17,2 C 81 % 1010,9 hPa 0,0 l/m 2 min 0 min 0,0 UV-I 250 W/m 2,6 km/h (1 Bft)
20.10.2013 16:28 18,7 C 16,7 C 79 % 1010,9 hPa 0,0 l/m 0 min 0 min 0,0 UV-I 102 W/m 10,3 km/h (2 Bft)
20.10.2013 16:30 18,7 C 16,7 C 80 % 1010,8 hPa 0,0 l/m 0 min 0 min 0,0 UV-I 135 W/m 10,3 km/h (2 Bft)
20.10.2013 16:32 18,5 C 16,7 C 80 % 1010,9 hPa 0,0 l/m 2 min 0 min 0,0 UV-I 192 W/m 7,7 km/h (2 Bft)
20.10.2013 16:34 18,5 C 16,7 C 80 % 1010,8 hPa 0,0 l/m 2 min 0 min 0,0 UV-I 276 W/m 0,0 km/h (0 Bft)
20.10.2013 16:36 18,5 C 16,7 C 80 % 1010,9 hPa 0,0 l/m 2 min 0 min 0,0 UV-I 199 W/m 10,3 km/h (2 Bft)
20.10.2013 16:38 18,5 C 16,7 C 80 % 1010,8 hPa 0,0 l/m 2 min 0 min 0,0 UV-I 148 W/m 7,7 km/h (2 Bft)
20.10.2013 16:40 18,5 C 16,7 C 80 % 1010,8 hPa 0,0 l/m 0 min 0 min 0,0 UV-I 130 W/m 0,0 km/h (0 Bft)
20.10.2013 16:42 18,4 C 16,7 C 80 % 1010,8 hPa 0,0 l/m 0 min 0 min 0,0 UV-I 70 W/m 20,6 km/h (4 Bft)
20.10.2013 16:44 18,3 C 16,1 C 80 % 1010,8 hPa 0,0 l/m 0 min 0 min 0,0 UV-I 67 W/m 18,0 km/h (3 Bft)
20.10.2013 16:46 18,2 C 16,1 C 81 % 1010,8 hPa 0,0 l/m 0 min 0 min 0,0 UV-I 56 W/m 2,6 km/h (1 Bft)
20.10.2013 16:48 18,0 C 16,1 C 81 % 1010,9 hPa 0,0 l/m 0 min 0 min 0,0 UV-I 54 W/m 15,4 km/h (3 Bft)
20.10.2013 16:50 17,9 C 16,1 C 81 % 1010,9 hPa 0,0 l/m 0 min 0 min 0,0 UV-I 56 W/m 0,0 km/h (0 Bft)
20.10.2013 16:52 17,8 C 16,1 C 81 % 1010,9 hPa 0,0 l/m 0 min 0 min 0,0 UV-I 58 W/m 5,1 km/h (1 Bft)
20.10.2013 16:54 17,8 C 16,1 C 81 % 1011,0 hPa 0,0 l/m 0 min 0 min 0,0 UV-I 58 W/m 5,1 km/h (1 Bft)
20.10.2013 16:56 17,8 C 16,1 C 82 % 1010,9 hPa 0,0 l/m 0 min 0 min 0,0 UV-I 54 W/m 0,0 km/h (0 Bft)
20.10.2013 16:58 17,7 C 16,1 C 82 % 1010,9 hPa 0,0 l/m 0 min 0 min 0,0 UV-I 53 W/m 0,0 km/h (0 Bft)
20.10.2013 17:00 17,7 C 16,1 C 83 % 1010,9 hPa 0,0 l/m 0 min 0 min 0,0 UV-I 56 W/m 0,0 km/h (0 Bft)
20.10.2013 17:02 17,7 C 16,1 C 83 % 1010,8 hPa 0,0 l/m 0 min 0 min 0,0 UV-I 60 W/m 0,0 km/h (0 Bft)
20.10.2013 17:06 17,6 C 16,1 C 84 % 1010,9 hPa 0,0 l/m 0 min 0 min 0,0 UV-I 65 W/m 0,0 km/h (0 Bft)
20.10.2013 17:08 17,6 C 16,1 C 84 % 1010,8 hPa 0,0 l/m 0 min 0 min 0,0 UV-I 90 W/m 0,0 km/h (0 Bft)
20.10.2013 17:10 17,6 C 16,1 C 84 % 1010,8 hPa 0,0 l/m 0 min 0 min 0,0 UV-I 83 W/m 0,0 km/h (0 Bft)
20.10.2013 17:12 17,6 C 16,1 C 84 % 1010,8 hPa 0,0 l/m 0 min 0 min 0,0 UV-I 93 W/m 0,0 km/h (0 Bft)
20.10.2013 17:14 17,6 C 16,1 C 84 % 1010,7 hPa 0,0 l/m 2 min 0 min 0,0 UV-I 98 W/m 7,7 km/h (2 Bft)
20.10.2013 17:15 17,7 C 16,1 C 84 % 1010,7 hPa 0,0 l/m 1 min 0 min 0,0 UV-I 98 W/m 7,7 km/h (2 Bft)
20.10.2013 17:20 17,6 C 16,1 C 85 % 1010,8 hPa 0,0 l/m 2 min 0 min 0,0 UV-I 98 W/m 0,0 km/h (0 Bft)
20.10.2013 17:25 17,6 C 15,6 C 85 % 1010,8 hPa 0,0 l/m 0 min 0 min 0,0 UV-I 63 W/m 0,0 km/h (0 Bft)
20.10.2013 17:30 17,4 C 15,6 C 85 % 1010,7 hPa 0,0 l/m 0 min 0 min 0,0 UV-I 32 W/m 0,0 km/h (0 Bft)
20.10.2013 17:32 17,4 C 15,6 C 85 % 1010,7 hPa 0,0 l/m 0 min 0 min 0,0 UV-I 32 W/m 0,0 km/h (0 Bft)
20.10.2013 17:34 17,3 C 15,0 C 85 % 1010,8 hPa 0,0 l/m 0 min 0 min 0,0 UV-I 33 W/m 0,0 km/h (0 Bft)
20.10.2013 17:36 17,2 C 15,0 C 86 % 1010,7 hPa 0,0 l/m 0 min 0 min 0,0 UV-I 32 W/m 0,0 km/h (0 Bft)
20.10.2013 17:38 17,2 C 15,0 C 86 % 1010,7 hPa 0,0 l/m 0 min 0 min 0,0 UV-I 32 W/m 0,0 km/h (0 Bft)
20.10.2013 17:40 17,2 C 15,0 C 86 % 1010,7 hPa 0,0 l/m 0 min 0 min 0,0 UV-I 33 W/m 0,0 km/h (0 Bft)
20.10.2013 17:42 17,1 C 15,0 C 86 % 1010,7 hPa 0,0 l/m 0 min 0 min 0,0 UV-I 33 W/m 0,0 km/h (0 Bft)
20.10.2013 17:44 17,1 C 15,0 C 86 % 1010,7 hPa 0,0 l/m 0 min 0 min 0,0 UV-I 32 W/m 0,0 km/h (0 Bft)
20.10.2013 17:46 17,1 C 15,0 C 86 % 1010,6 hPa 0,0 l/m 0 min 0 min 0,0 UV-I 30 W/m 0,0 km/h (0 Bft)
20.10.2013 17:48 17,0 C 15,0 C 87 % 1010,6 hPa 0,0 l/m 0 min 0 min 0,0 UV-I 26 W/m 0,0 km/h (0 Bft)
20.10.2013 17:50 16,9 C 15,0 C 87 % 1010,5 hPa 0,0 l/m 0 min 0 min 0,0 UV-I 25 W/m 0,0 km/h (0 Bft)
20.10.2013 17:52 16,9 C 15,0 C 87 % 1010,6 hPa 0,0 l/m 0 min 0 min 0,0 UV-I 21 W/m 0,0 km/h (0 Bft)
20.10.2013 17:54 16,8 C 14,4 C 87 % 1010,7 hPa 0,0 l/m 0 min 0 min 0,0 UV-I 19 W/m 0,0 km/h (0 Bft)
20.10.2013 17:56 16,8 C 14,4 C 88 % 1010,7 hPa 0,0 l/m 0 min 0 min 0,0 UV-I 18 W/m 0,0 km/h (0 Bft)
20.10.2013 17:58 16,8 C 14,4 C 88 % 1010,8 hPa 0,0 l/m 0 min 0 min 0,0 UV-I 16 W/m 0,0 km/h (0 Bft)
20.10.2013 18:00 16,7 C 14,4 C 88 % 1010,8 hPa 0,0 l/m 0 min 0 min 0,0 UV-I 16 W/m 0,0 km/h (0 Bft)
20.10.2013 18:02 16,7 C 14,4 C 88 % 1010,8 hPa 0,0 l/m 0 min 0 min 0,0 UV-I 18 W/m 0,0 km/h (0 Bft)
20.10.2013 18:06 16,6 C 14,4 C 88 % 1010,7 hPa 0,0 l/m 0 min 0 min 0,0 UV-I 21 W/m 0,0 km/h (0 Bft)
20.10.2013 18:08 16,6 C 14,4 C 89 % 1010,6 hPa 0,0 l/m 0 min 0 min 0,0 UV-I 19 W/m 0,0 km/h (0 Bft)
20.10.2013 18:10 16,6 C 14,4 C 89 % 1010,5 hPa 0,0 l/m 0 min 0 min 0,0 UV-I 18 W/m 5,1 km/h (1 Bft)
20.10.2013 18:12 16,6 C 14,4 C 89 % 1010,6 hPa 0,0 l/m 0 min 0 min 0,0 UV-I 14 W/m 2,6 km/h (1 Bft)
20.10.2013 18:14 16,6 C 14,4 C 89 % 1010,7 hPa 0,0 l/m 0 min 0 min 0,0 UV-I 12 W/m 0,0 km/h (0 Bft)
20.10.2013 18:16 16,5 C 14,4 C 89 % 1010,8 hPa 0,0 l/m 0 min 0 min 0,0 UV-I 9 W/m 2,6 km/h (1 Bft)
20.10.2013 18:18 16,5 C 14,4 C 89 % 1010,8 hPa 0,0 l/m 0 min 0 min 0,0 UV-I 7 W/m 2,6 km/h (1 Bft)
20.10.2013 18:20 16,6 C 14,4 C 88 % 1010,8 hPa 0,0 l/m 0 min 0 min 0,0 UV-I 5 W/m 2,6 km/h (1 Bft)
20.10.2013 18:22 16,6 C 14,4 C 88 % 1010,6 hPa 0,0 l/m 0 min 0 min 0,0 UV-I 5 W/m 5,1 km/h (1 Bft)
20.10.2013 18:24 16,6 C 14,4 C 87 % 1010,7 hPa 0,0 l/m 0 min 0 min 0,0 UV-I 0 W/m 7,7 km/h (2 Bft)
20.10.2013 18:26 16,7 C 15,0 C 86 % 1010,7 hPa 0,0 l/m 0 min 0 min 0,0 UV-I 0 W/m 7,7 km/h (2 Bft)
20.10.2013 18:28 16,7 C 15,0 C 85 % 1010,7 hPa 0,0 l/m 0 min 0 min 0,0 UV-I 0 W/m 7,7 km/h (2 Bft)
20.10.2013 18:30 16,8 C 15,0 C 84 % 1010,6 hPa 0,0 l/m 0 min 0 min 0,0 UV-I 0 W/m 15,4 km/h (3 Bft)
20.10.2013 18:32 16,8 C 15,0 C 84 % 1010,7 hPa 0,0 l/m 0 min 0 min 0,0 UV-I 0 W/m 7,7 km/h (2 Bft)
20.10.2013 18:34 16,8 C 15,0 C 84 % 1010,7 hPa 0,0 l/m 0 min 0 min 0,0 UV-I 0 W/m 7,7 km/h (2 Bft)
20.10.2013 18:36 16,8 C 15,0 C 83 % 1010,7 hPa 0,0 l/m 0 min 0 min 0,0 UV-I 0 W/m 15,4 km/h (3 Bft)
20.10.2013 18:38 16,9 C 15,0 C 83 % 1010,6 hPa 0,0 l/m 0 min 0 min 0,0 UV-I 0 W/m 5,1 km/h (1 Bft)
20.10.2013 18:40 16,9 C 15,0 C 83 % 1010,6 hPa 0,0 l/m 0 min 0 min 0,0 UV-I 0 W/m 0,0 km/h (0 Bft)
20.10.2013 18:42 16,9 C 15,0 C 82 % 1010,7 hPa 0,0 l/m 0 min 0 min 0,0 UV-I 0 W/m 12,9 km/h (3 Bft)
20.10.2013 18:44 16,9 C 15,0 C 82 % 1010,7 hPa 0,0 l/m 0 min 0 min 0,0 UV-I 0 W/m 10,3 km/h (2 Bft)
20.10.2013 18:46 16,9 C 15,0 C 82 % 1010,6 hPa 0,0 l/m 0 min 0 min 0,0 UV-I 0 W/m 2,6 km/h (1 Bft)
20.10.2013 18:48 16,9 C 15,0 C 82 % 1010,5 hPa 0,0 l/m 0 min 0 min 0,0 UV-I 0 W/m 10,3 km/h (2 Bft)
20.10.2013 18:50 16,8 C 15,0 C 82 % 1010,6 hPa 0,0 l/m 0 min 0 min 0,0 UV-I 0 W/m 2,6 km/h (1 Bft)
20.10.2013 18:52 16,8 C 15,0 C 82 % 1010,6 hPa 0,0 l/m 0 min 0 min 0,0 UV-I 0 W/m 7,7 km/h (2 Bft)
20.10.2013 18:54 16,8 C 15,0 C 82 % 1010,7 hPa 0,0 l/m 0 min 0 min 0,0 UV-I 0 W/m 7,7 km/h (2 Bft)
20.10.2013 18:56 16,8 C 14,4 C 83 % 1010,7 hPa 0,0 l/m 0 min 0 min 0,0 UV-I 0 W/m 2,6 km/h (1 Bft)
20.10.2013 18:58 16,7 C 14,4 C 83 % 1010,7 hPa 0,0 l/m 0 min 0 min 0,0 UV-I 0 W/m 2,6 km/h (1 Bft)
20.10.2013 19:00 16,7 C 14,4 C 83 % 1010,7 hPa 0,0 l/m 0 min 0 min 0,0 UV-I 0 W/m 5,1 km/h (1 Bft)
20.10.2013 19:02 16,7 C 14,4 C 83 % 1010,7 hPa 0,0 l/m 0 min 0 min 0,0 UV-I 0 W/m 5,1 km/h (1 Bft)
20.10.2013 19:06 16,7 C 14,4 C 83 % 1010,7 hPa 0,0 l/m 0 min 0 min 0,0 UV-I 0 W/m 7,7 km/h (2 Bft)
20.10.2013 19:08 16,6 C 14,4 C 83 % 1010,7 hPa 0,0 l/m 0 min 0 min 0,0 UV-I 0 W/m 2,6 km/h (1 Bft)
20.10.2013 19:10 16,6 C 14,4 C 83 % 1010,6 hPa 0,0 l/m 0 min 0 min 0,0 UV-I 0 W/m 5,1 km/h (1 Bft)
20.10.2013 19:12 16,6 C 14,4 C 83 % 1010,7 hPa 0,0 l/m 0 min 0 min 0,0 UV-I 0 W/m 7,7 km/h (2 Bft)
20.10.2013 19:14 16,6 C 14,4 C 83 % 1010,7 hPa 0,0 l/m 0 min 0 min 0,0 UV-I 0 W/m 10,3 km/h (2 Bft)
20.10.2013 19:16 16,5 C 14,4 C 83 % 1010,7 hPa 0,0 l/m 0 min 0 min 0,0 UV-I 0 W/m 10,3 km/h (2 Bft)
20.10.2013 19:18 16,5 C 14,4 C 83 % 1010,6 hPa 0,0 l/m 0 min 0 min 0,0 UV-I 0 W/m 7,7 km/h (2 Bft)
20.10.2013 19:20 16,5 C 14,4 C 83 % 1010,5 hPa 0,0 l/m 0 min 0 min 0,0 UV-I 0 W/m 10,3 km/h (2 Bft)
20.10.2013 19:22 16,5 C 14,4 C 83 % 1010,5 hPa 0,0 l/m 0 min 0 min 0,0 UV-I 0 W/m 0,0 km/h (0 Bft)
20.10.2013 19:24 16,5 C 14,4 C 83 % 1010,6 hPa 0,0 l/m 0 min 0 min 0,0 UV-I 0 W/m 10,3 km/h (2 Bft)
20.10.2013 19:26 16,4 C 14,4 C 84 % 1010,7 hPa 0,0 l/m 0 min 0 min 0,0 UV-I 0 W/m 2,6 km/h (1 Bft)
20.10.2013 19:28 16,4 C 14,4 C 84 % 1010,7 hPa 0,0 l/m 0 min 0 min 0,0 UV-I 0 W/m 15,4 km/h (3 Bft)
20.10.2013 19:30 16,4 C 14,4 C 84 % 1010,7 hPa 0,0 l/m 0 min 0 min 0,0 UV-I 0 W/m 12,9 km/h (3 Bft)
20.10.2013 19:32 16,4 C 14,4 C 84 % 1010,7 hPa 0,0 l/m 0 min 0 min 0,0 UV-I 0 W/m 7,7 km/h (2 Bft)
20.10.2013 19:34 16,4 C 14,4 C 84 % 1010,8 hPa 0,0 l/m 0 min 0 min 0,0 UV-I 0 W/m 7,7 km/h (2 Bft)
20.10.2013 19:36 16,4 C 14,4 C 84 % 1010,8 hPa 0,0 l/m 0 min 0 min 0,0 UV-I 0 W/m 20,6 km/h (4 Bft)
20.10.2013 19:38 16,4 C 14,4 C 84 % 1010,9 hPa 0,0 l/m 0 min 0 min 0,0 UV-I 0 W/m 10,3 km/h (2 Bft)
20.10.2013 19:40 16,4 C 14,4 C 84 % 1010,9 hPa 0,0 l/m 0 min 0 min 0,0 UV-I 0 W/m 18,0 km/h (3 Bft)
20.10.2013 19:42 16,4 C 14,4 C 83 % 1010,9 hPa 0,0 l/m 0 min 0 min 0,0 UV-I 0 W/m 7,7 km/h (2 Bft)
20.10.2013 19:44 16,4 C 14,4 C 83 % 1010,9 hPa 0,0 l/m 0 min 0 min 0,0 UV-I 0 W/m 2,6 km/h (1 Bft)
20.10.2013 19:46 16,4 C 14,4 C 83 % 1010,9 hPa 0,0 l/m 0 min 0 min 0,0 UV-I 0 W/m 5,1 km/h (1 Bft)
20.10.2013 19:48 16,5 C 14,4 C 83 % 1011,0 hPa 0,0 l/m 0 min 0 min 0,0 UV-I 0 W/m 10,3 km/h (2 Bft)
20.10.2013 19:50 16,5 C 14,4 C 83 % 1011,0 hPa 0,0 l/m 0 min 0 min 0,0 UV-I 0 W/m 12,9 km/h (3 Bft)
20.10.2013 19:52 16,5 C 14,4 C 83 % 1011,0 hPa 0,0 l/m 0 min 0 min 0,0 UV-I 0 W/m 12,9 km/h (3 Bft)
20.10.2013 19:54 16,6 C 14,4 C 83 % 1010,9 hPa 0,0 l/m 0 min 0 min 0,0 UV-I 0 W/m 2,6 km/h (1 Bft)
20.10.2013 19:56 16,6 C 14,4 C 83 % 1010,9 hPa 0,0 l/m 0 min 0 min 0,0 UV-I 0 W/m 7,7 km/h (2 Bft)
20.10.2013 19:58 16,5 C 14,4 C 83 % 1010,9 hPa 0,0 l/m 0 min 0 min 0,0 UV-I 0 W/m 7,7 km/h (2 Bft)
20.10.2013 20:00 16,5 C 14,4 C 83 % 1010,9 hPa 0,0 l/m 0 min 0 min 0,0 UV-I 0 W/m 5,1 km/h (1 Bft)
20.10.2013 20:02 16,5 C 14,4 C 83 % 1010,9 hPa 0,0 l/m 0 min 0 min 0,0 UV-I 0 W/m 15,4 km/h (3 Bft)
20.10.2013 20:06 16,4 C 14,4 C 83 % 1011,0 hPa 0,0 l/m 0 min 0 min 0,0 UV-I 0 W/m 7,7 km/h (2 Bft)
20.10.2013 20:08 16,4 C 14,4 C 83 % 1011,0 hPa 0,0 l/m 0 min 0 min 0,0 UV-I 0 W/m 7,7 km/h (2 Bft)
20.10.2013 20:10 16,4 C 14,4 C 83 % 1010,9 hPa 0,0 l/m 0 min 0 min 0,0 UV-I 0 W/m 15,4 km/h (3 Bft)
20.10.2013 20:12 16,4 C 14,4 C 83 % 1010,9 hPa 0,0 l/m 0 min 0 min 0,0 UV-I 0 W/m 5,1 km/h (1 Bft)
20.10.2013 20:14 16,3 C 14,4 C 84 % 1010,9 hPa 0,0 l/m 0 min 0 min 0,0 UV-I 0 W/m 7,7 km/h (2 Bft)
20.10.2013 20:16 16,3 C 14,4 C 84 % 1010,8 hPa 0,0 l/m 0 min 0 min 0,0 UV-I 0 W/m 0,0 km/h (0 Bft)
20.10.2013 20:18 16,3 C 14,4 C 83 % 1010,9 hPa 0,0 l/m 0 min 0 min 0,0 UV-I 0 W/m 0,0 km/h (0 Bft)
20.10.2013 20:20 16,3 C 14,4 C 83 % 1010,8 hPa 0,0 l/m 0 min 0 min 0,0 UV-I 0 W/m 0,0 km/h (0 Bft)
20.10.2013 20:22 16,2 C 14,4 C 84 % 1010,8 hPa 0,0 l/m 0 min 0 min 0,0 UV-I 0 W/m 5,1 km/h (1 Bft)
20.10.2013 20:24 16,2 C 14,4 C 84 % 1010,8 hPa 0,0 l/m 0 min 0 min 0,0 UV-I 0 W/m 10,3 km/h (2 Bft)
20.10.2013 20:26 16,2 C 14,4 C 84 % 1010,8 hPa 0,0 l/m 0 min 0 min 0,0 UV-I 0 W/m 10,3 km/h (2 Bft)
20.10.2013 20:28 16,2 C 14,4 C 84 % 1010,8 hPa 0,0 l/m 0 min 0 min 0,0 UV-I 0 W/m 7,7 km/h (2 Bft)
20.10.2013 20:30 16,2 C 13,9 C 84 % 1010,7 hPa 0,0 l/m 0 min 0 min 0,0 UV-I 0 W/m 0,0 km/h (0 Bft)
20.10.2013 20:32 16,2 C 13,9 C 84 % 1010,6 hPa 0,0 l/m 0 min 0 min 0,0 UV-I 0 W/m 7,7 km/h (2 Bft)
20.10.2013 20:34 16,1 C 13,9 C 84 % 1010,7 hPa 0,0 l/m 0 min 0 min 0,0 UV-I 0 W/m 0,0 km/h (0 Bft)
20.10.2013 20:36 16,1 C 13,9 C 84 % 1010,6 hPa 0,0 l/m 0 min 0 min 0,0 UV-I 0 W/m 10,3 km/h (2 Bft)
20.10.2013 20:38 16,1 C 13,9 C 85 % 1010,6 hPa 0,0 l/m 0 min 0 min 0,0 UV-I 0 W/m 12,9 km/h (3 Bft)
20.10.2013 20:40 16,1 C 13,9 C 85 % 1010,7 hPa 0,0 l/m 0 min 0 min 0,0 UV-I 0 W/m 7,7 km/h (2 Bft)
20.10.2013 20:42 16,1 C 14,4 C 85 % 1010,7 hPa 0,0 l/m 0 min 0 min 0,0 UV-I 0 W/m 7,7 km/h (2 Bft)
20.10.2013 20:44 16,1 C 14,4 C 85 % 1010,6 hPa 0,0 l/m 0 min 0 min 0,0 UV-I 0 W/m 10,3 km/h (2 Bft)
20.10.2013 20:46 16,0 C 13,9 C 85 % 1010,7 hPa 0,0 l/m 0 min 0 min 0,0 UV-I 0 W/m 7,7 km/h (2 Bft)
20.10.2013 20:48 16,0 C 13,9 C 85 % 1010,7 hPa 0,0 l/m 0 min 0 min 0,0 UV-I 0 W/m 5,1 km/h (1 Bft)
20.10.2013 20:50 16,0 C 13,9 C 85 % 1010,7 hPa 0,0 l/m 0 min 0 min 0,0 UV-I 0 W/m 2,6 km/h (1 Bft)
20.10.2013 20:52 15,9 C 13,9 C 85 % 1010,8 hPa 0,0 l/m 0 min 0 min 0,0 UV-I 0 W/m 10,3 km/h (2 Bft)
20.10.2013 20:54 15,9 C 13,9 C 85 % 1010,7 hPa 0,0 l/m 0 min 0 min 0,0 UV-I 0 W/m 10,3 km/h (2 Bft)
20.10.2013 20:56 15,9 C 13,9 C 85 % 1010,7 hPa 0,0 l/m 0 min 0 min 0,0 UV-I 0 W/m 2,6 km/h (1 Bft)
20.10.2013 20:58 15,9 C 13,9 C 85 % 1010,7 hPa 0,0 l/m 0 min 0 min 0,0 UV-I 0 W/m 0,0 km/h (0 Bft)
20.10.2013 21:00 15,8 C 13,9 C 85 % 1010,7 hPa 0,0 l/m 0 min 0 min 0,0 UV-I 0 W/m 12,9 km/h (3 Bft)
20.10.2013 21:02 15,8 C 13,9 C 85 % 1010,8 hPa 0,0 l/m 0 min 0 min 0,0 UV-I 0 W/m 12,9 km/h (3 Bft)
20.10.2013 21:06 15,8 C 13,9 C 86 % 1010,7 hPa 0,0 l/m 0 min 0 min 0,0 UV-I 0 W/m 2,6 km/h (1 Bft)
20.10.2013 21:08 15,8 C 13,9 C 86 % 1010,7 hPa 0,0 l/m 0 min 0 min 0,0 UV-I 0 W/m 10,3 km/h (2 Bft)
20.10.2013 21:10 15,8 C 13,9 C 86 % 1010,7 hPa 0,0 l/m 0 min 0 min 0,0 UV-I 0 W/m 7,7 km/h (2 Bft)
20.10.2013 21:12 15,8 C 13,9 C 86 % 1010,7 hPa 0,0 l/m 0 min 0 min 0,0 UV-I 0 W/m 12,9 km/h (3 Bft)
20.10.2013 21:14 15,8 C 13,9 C 86 % 1010,7 hPa 0,0 l/m 0 min 0 min 0,0 UV-I 0 W/m 10,3 km/h (2 Bft)
20.10.2013 21:16 15,8 C 13,9 C 86 % 1010,7 hPa 0,0 l/m 0 min 0 min 0,0 UV-I 0 W/m 15,4 km/h (3 Bft)
20.10.2013 21:18 15,8 C 13,9 C 86 % 1010,7 hPa 0,0 l/m 0 min 0 min 0,0 UV-I 0 W/m 12,9 km/h (3 Bft)
20.10.2013 21:20 15,8 C 13,9 C 86 % 1010,6 hPa 0,0 l/m 0 min 0 min 0,0 UV-I 0 W/m 10,3 km/h (2 Bft)
20.10.2013 21:22 15,8 C 13,9 C 86 % 1010,5 hPa 0,0 l/m 0 min 0 min 0,0 UV-I 0 W/m 15,4 km/h (3 Bft)
20.10.2013 21:24 15,8 C 13,9 C 86 % 1010,6 hPa 0,0 l/m 0 min 0 min 0,0 UV-I 0 W/m 10,3 km/h (2 Bft)
20.10.2013 21:26 15,8 C 13,9 C 86 % 1010,8 hPa 0,0 l/m 0 min 0 min 0,0 UV-I 0 W/m 2,6 km/h (1 Bft)
20.10.2013 21:28 15,8 C 13,9 C 86 % 1010,8 hPa 0,0 l/m 0 min 0 min 0,0 UV-I 0 W/m 10,3 km/h (2 Bft)
20.10.2013 21:30 15,9 C 14,4 C 86 % 1010,9 hPa 0,0 l/m 0 min 0 min 0,0 UV-I 0 W/m 7,7 km/h (2 Bft)
20.10.2013 21:32 15,9 C 14,4 C 86 % 1010,9 hPa 0,0 l/m 0 min 0 min 0,0 UV-I 0 W/m 7,7 km/h (2 Bft)
20.10.2013 21:34 15,9 C 14,4 C 86 % 1010,9 hPa 0,0 l/m 0 min 0 min 0,0 UV-I 0 W/m 2,6 km/h (1 Bft)
20.10.2013 21:36 15,9 C 13,9 C 86 % 1010,9 hPa 0,0 l/m 0 min 0 min 0,0 UV-I 0 W/m 2,6 km/h (1 Bft)
20.10.2013 21:38 15,9 C 14,4 C 86 % 1010,9 hPa 0,0 l/m 0 min 0 min 0,0 UV-I 0 W/m 15,4 km/h (3 Bft)
20.10.2013 21:40 15,9 C 13,9 C 86 % 1010,9 hPa 0,0 l/m 0 min 0 min 0,0 UV-I 0 W/m 15,4 km/h (3 Bft)
20.10.2013 21:42 15,9 C 13,9 C 86 % 1010,9 hPa 0,0 l/m 0 min 2 min 0,0 UV-I 0 W/m 18,0 km/h (3 Bft)
20.10.2013 21:44 15,9 C 13,9 C 86 % 1011,0 hPa 0,0 l/m 0 min 2 min 0,0 UV-I 0 W/m 12,9 km/h (3 Bft)
20.10.2013 21:46 15,9 C 13,9 C 86 % 1011,1 hPa 0,0 l/m 0 min 2 min 0,0 UV-I 0 W/m 2,6 km/h (1 Bft)
20.10.2013 21:48 15,9 C 13,9 C 86 % 1011,0 hPa 0,0 l/m 0 min 2 min 0,0 UV-I 0 W/m 20,6 km/h (4 Bft)
20.10.2013 21:50 15,9 C 13,3 C 86 % 1011,0 hPa 0,0 l/m 0 min 2 min 0,0 UV-I 0 W/m 7,7 km/h (2 Bft)
20.10.2013 21:52 16,0 C 13,3 C 86 % 1011,0 hPa 0,0 l/m 0 min 2 min 0,0 UV-I 0 W/m 10,3 km/h (2 Bft)
20.10.2013 21:54 16,0 C 13,3 C 87 % 1011,0 hPa 0,0 l/m 0 min 2 min 0,0 UV-I 0 W/m 15,4 km/h (3 Bft)
20.10.2013 21:56 16,0 C 13,3 C 87 % 1011,0 hPa 0,0 l/m 0 min 2 min 0,0 UV-I 0 W/m 12,9 km/h (3 Bft)
20.10.2013 21:58 16,0 C 13,3 C 87 % 1010,9 hPa 0,0 l/m 0 min 0 min 0,0 UV-I 0 W/m 12,9 km/h (3 Bft)
20.10.2013 22:00 16,0 C 13,3 C 87 % 1010,9 hPa 0,0 l/m 0 min 2 min 0,0 UV-I 0 W/m 5,1 km/h (1 Bft)
20.10.2013 22:02 15,9 C 13,3 C 87 % 1011,0 hPa 0,0 l/m 0 min 2 min 0,0 UV-I 0 W/m 7,7 km/h (2 Bft)
20.10.2013 22:06 15,9 C 13,3 C 87 % 1010,9 hPa 0,0 l/m 0 min 2 min 0,0 UV-I 0 W/m 12,9 km/h (3 Bft)
20.10.2013 22:08 16,0 C 13,3 C 87 % 1011,2 hPa 0,0 l/m 0 min 0 min 0,0 UV-I 0 W/m 18,0 km/h (3 Bft)
20.10.2013 22:10 16,0 C 13,3 C 87 % 1011,0 hPa 0,0 l/m 0 min 2 min 0,0 UV-I 0 W/m 12,9 km/h (3 Bft)
20.10.2013 22:12 16,0 C 13,3 C 87 % 1010,9 hPa 0,0 l/m 0 min 2 min 0,0 UV-I 0 W/m 23,2 km/h (4 Bft)
20.10.2013 22:14 16,1 C 13,3 C 86 % 1011,0 hPa 0,0 l/m 0 min 0 min 0,0 UV-I 0 W/m 18,0 km/h (3 Bft)
20.10.2013 22:16 16,1 C 13,3 C 86 % 1011,0 hPa 0,0 l/m 0 min 2 min 0,0 UV-I 0 W/m 23,2 km/h (4 Bft)
20.10.2013 22:18 16,1 C 13,3 C 86 % 1011,0 hPa 0,0 l/m 0 min 2 min 0,0 UV-I 0 W/m 7,7 km/h (2 Bft)
20.10.2013 22:20 16,1 C 13,9 C 85 % 1011,0 hPa 0,0 l/m 0 min 0 min 0,0 UV-I 0 W/m 12,9 km/h (3 Bft)
20.10.2013 22:22 16,1 C 13,9 C 85 % 1011,0 hPa 0,0 l/m 0 min 0 min 0,0 UV-I 0 W/m 7,7 km/h (2 Bft)
20.10.2013 22:24 16,2 C 13,9 C 85 % 1011,0 hPa 0,0 l/m 0 min 0 min 0,0 UV-I 0 W/m 5,1 km/h (1 Bft)
20.10.2013 22:26 16,2 C 13,9 C 85 % 1011,0 hPa 0,0 l/m 0 min 0 min 0,0 UV-I 0 W/m 18,0 km/h (3 Bft)
20.10.2013 22:28 16,2 C 13,9 C 85 % 1011,0 hPa 0,0 l/m 0 min 0 min 0,0 UV-I 0 W/m 15,4 km/h (3 Bft)
20.10.2013 22:30 16,2 C 14,4 C 85 % 1011,0 hPa 0,0 l/m 0 min 0 min 0,0 UV-I 0 W/m 23,2 km/h (4 Bft)
20.10.2013 22:32 16,2 C 14,4 C 85 % 1010,9 hPa 0,0 l/m 0 min 0 min 0,0 UV-I 0 W/m 23,2 km/h (4 Bft)
20.10.2013 22:34 16,2 C 14,4 C 85 % 1011,2 hPa 0,0 l/m 0 min 0 min 0,0 UV-I 0 W/m 23,2 km/h (4 Bft)
20.10.2013 22:36 16,2 C 14,4 C 84 % 1011,2 hPa 0,0 l/m 0 min 0 min 0,0 UV-I 0 W/m 20,6 km/h (4 Bft)
20.10.2013 22:38 16,2 C 14,4 C 84 % 1011,1 hPa 0,0 l/m 0 min 0 min 0,0 UV-I 0 W/m 7,7 km/h (2 Bft)
20.10.2013 22:40 16,1 C 13,9 C 84 % 1011,2 hPa 0,0 l/m 0 min 0 min 0,0 UV-I 0 W/m 2,6 km/h (1 Bft)
20.10.2013 22:42 16,1 C 13,9 C 84 % 1011,2 hPa 0,0 l/m 0 min 0 min 0,0 UV-I 0 W/m 15,4 km/h (3 Bft)
20.10.2013 22:44 16,0 C 13,9 C 84 % 1011,3 hPa 0,0 l/m 0 min 0 min 0,0 UV-I 0 W/m 28,3 km/h (4 Bft)
20.10.2013 22:46 15,9 C 13,9 C 85 % 1011,4 hPa 0,0 l/m 0 min 0 min 0,0 UV-I 0 W/m 12,9 km/h (3 Bft)
20.10.2013 22:48 15,9 C 13,9 C 85 % 1011,4 hPa 0,0 l/m 0 min 0 min 0,0 UV-I 0 W/m 20,6 km/h (4 Bft)
20.10.2013 22:50 15,9 C 13,9 C 85 % 1011,3 hPa 0,0 l/m 0 min 0 min 0,0 UV-I 0 W/m 15,4 km/h (3 Bft)
20.10.2013 22:52 15,9 C 13,9 C 85 % 1011,4 hPa 0,0 l/m 0 min 0 min 0,0 UV-I 0 W/m 10,3 km/h (2 Bft)
20.10.2013 22:54 15,8 C 13,9 C 84 % 1011,3 hPa 0,0 l/m 0 min 0 min 0,0 UV-I 0 W/m 12,9 km/h (3 Bft)
20.10.2013 22:56 15,8 C 13,9 C 84 % 1011,3 hPa 0,0 l/m 0 min 0 min 0,0 UV-I 0 W/m 5,1 km/h (1 Bft)
20.10.2013 22:58 15,7 C 13,9 C 85 % 1011,4 hPa 0,0 l/m 0 min 0 min 0,0 UV-I 0 W/m 12,9 km/h (3 Bft)
20.10.2013 23:00 15,7 C 13,9 C 85 % 1011,3 hPa 0,0 l/m 0 min 0 min 0,0 UV-I 0 W/m 10,3 km/h (2 Bft)
20.10.2013 23:02 15,7 C 13,9 C 85 % 1011,4 hPa 0,0 l/m 0 min 0 min 0,0 UV-I 0 W/m 10,3 km/h (2 Bft)
20.10.2013 23:06 15,6 C 13,9 C 85 % 1011,4 hPa 0,0 l/m 0 min 0 min 0,0 UV-I 0 W/m 18,0 km/h (3 Bft)
20.10.2013 23:08 15,6 C 13,9 C 84 % 1011,4 hPa 0,0 l/m 0 min 0 min 0,0 UV-I 0 W/m 7,7 km/h (2 Bft)
20.10.2013 23:10 15,6 C 13,3 C 84 % 1011,5 hPa 0,0 l/m 0 min 0 min 0,0 UV-I 0 W/m 15,4 km/h (3 Bft)
20.10.2013 23:12 15,5 C 13,3 C 84 % 1011,5 hPa 0,0 l/m 0 min 0 min 0,0 UV-I 0 W/m 10,3 km/h (2 Bft)
20.10.2013 23:14 15,4 C 13,3 C 84 % 1011,5 hPa 0,0 l/m 0 min 0 min 0,0 UV-I 0 W/m 2,6 km/h (1 Bft)
20.10.2013 23:16 15,4 C 13,3 C 84 % 1011,4 hPa 0,0 l/m 0 min 0 min 0,0 UV-I 0 W/m 12,9 km/h (3 Bft)
20.10.2013 23:18 15,3 C 13,3 C 85 % 1011,5 hPa 0,0 l/m 0 min 0 min 0,0 UV-I 0 W/m 2,6 km/h (1 Bft)
20.10.2013 23:20 15,3 C 13,3 C 85 % 1011,5 hPa 0,0 l/m 0 min 0 min 0,0 UV-I 0 W/m 7,7 km/h (2 Bft)
20.10.2013 23:22 15,2 C 13,3 C 85 % 1011,5 hPa 0,0 l/m 0 min 0 min 0,0 UV-I 0 W/m 5,1 km/h (1 Bft)
20.10.2013 23:24 15,2 C 13,3 C 85 % 1011,6 hPa 0,0 l/m 0 min 0 min 0,0 UV-I 0 W/m 10,3 km/h (2 Bft)
20.10.2013 23:26 15,2 C 13,3 C 85 % 1011,6 hPa 0,0 l/m 0 min 0 min 0,0 UV-I 0 W/m 15,4 km/h (3 Bft)
20.10.2013 23:28 15,2 C 13,3 C 85 % 1011,6 hPa 0,0 l/m 0 min 0 min 0,0 UV-I 0 W/m 7,7 km/h (2 Bft)
20.10.2013 23:30 15,2 C 13,3 C 85 % 1011,7 hPa 0,0 l/m 0 min 0 min 0,0 UV-I 0 W/m 15,4 km/h (3 Bft)
20.10.2013 23:32 15,2 C 13,3 C 85 % 1011,7 hPa 0,0 l/m 0 min 0 min 0,0 UV-I 0 W/m 23,2 km/h (4 Bft)
20.10.2013 23:34 15,2 C 13,3 C 85 % 1011,7 hPa 0,0 l/m 0 min 0 min 0,0 UV-I 0 W/m 23,2 km/h (4 Bft)
20.10.2013 23:36 15,2 C 13,3 C 85 % 1011,7 hPa 0,0 l/m 0 min 0 min 0,0 UV-I 0 W/m 23,2 km/h (4 Bft)
20.10.2013 23:38 15,2 C 13,3 C 85 % 1011,7 hPa 0,0 l/m 0 min 0 min 0,0 UV-I 0 W/m 5,1 km/h (1 Bft)
20.10.2013 23:40 15,2 C 13,3 C 85 % 1011,9 hPa 0,0 l/m 0 min 0 min 0,0 UV-I 0 W/m 36,0 km/h (5 Bft)
20.10.2013 23:42 15,2 C 13,3 C 85 % 1011,8 hPa 0,0 l/m 0 min 0 min 0,0 UV-I 0 W/m 5,1 km/h (1 Bft)
20.10.2013 23:44 15,2 C 13,3 C 85 % 1011,8 hPa 0,0 l/m 0 min 0 min 0,0 UV-I 0 W/m 15,4 km/h (3 Bft)
20.10.2013 23:46 15,2 C 13,3 C 85 % 1011,8 hPa 0,0 l/m 0 min 0 min 0,0 UV-I 0 W/m 15,4 km/h (3 Bft)
20.10.2013 23:48 15,1 C 13,3 C 85 % 1011,8 hPa 0,0 l/m 0 min 0 min 0,0 UV-I 0 W/m 30,9 km/h (5 Bft)
20.10.2013 23:50 15,1 C 13,3 C 86 % 1012,0 hPa 0,0 l/m 0 min 0 min 0,0 UV-I 0 W/m 12,9 km/h (3 Bft)
20.10.2013 23:52 15,1 C 13,3 C 86 % 1011,9 hPa 0,0 l/m 0 min 0 min 0,0 UV-I 0 W/m 10,3 km/h (2 Bft)
20.10.2013 23:54 15,0 C 13,3 C 86 % 1011,9 hPa 0,0 l/m 0 min 0 min 0,0 UV-I 0 W/m 10,3 km/h (2 Bft)
20.10.2013 23:56 15,0 C 13,3 C 86 % 1011,9 hPa 0,0 l/m 0 min 0 min 0,0 UV-I 0 W/m 18,0 km/h (3 Bft)
20.10.2013 23:58 15,0 C 13,3 C 86 % 1011,9 hPa 0,0 l/m 0 min 0 min 0,0 UV-I 0 W/m 20,6 km/h (4 Bft)
_ Min-Zeit 01:28 01:12 13:52 00:00 - - - - - 00:00
Minimum _ 14,1 C 11,7 C 79 % 1010,2 hPa - - - - - 0,0 km/h (0 Bft)
_ Max-Zeit 16:26 13:06 01:34 11:20 00:00 13:12 12:10 13:16 16:22 23:40
Maximum _ 18,7 C 17,2 C 96 % 1012,0 hPa 0,0 l/m 2 min 2 min 0,7 UV-I 334 W/m 36,0 km/h
S (5 Bft)
Durchschnitt _ 15,9 C 14,0 C 89 % 1011,2 hPa #0,0 l/m #35 min. #1:32 h 0,6 UV-I 105 W/m 5,1 km/h (1 Bft)
© 2013 W. Hausmann